N84VK BIKF-EGPD

Flight info

Callsign N84VK
Flight time 5h 30m
Altitude 15000
Route OSKUM3C OSKUM DCT RATSU/N0146F150 DCT DEVBI DCT WIK Y904 ADN
Aircraft PA24/L-SDGRY/S

Departure

Time 2026-04-29 15:44
Airport Keflavik International Airport (BIKF)

Arrival

Time 2026-04-29 21:14
Airport Aberdeen International Airport (EGPD)
Time Latitude Longitude Altitude Speed Heading
2026-04-29 15:05 63.97487 -22.59010 166 ft 0 kts 114°
2026-04-29 15:06 63.97487 -22.59011 166 ft 0 kts 114°
2026-04-29 15:07 63.97487 -22.59012 166 ft 0 kts 114°
2026-04-29 15:07 63.97488 -22.59012 166 ft 0 kts 114°
2026-04-29 15:08 63.97488 -22.59013 166 ft 0 kts 114°
2026-04-29 15:09 63.97488 -22.59014 166 ft 0 kts 114°
2026-04-29 15:11 63.97488 -22.59015 166 ft 0 kts 114°
2026-04-29 15:12 63.97488 -22.59016 166 ft 0 kts 114°
2026-04-29 15:14 63.97488 -22.59017 166 ft 0 kts 115°
2026-04-29 15:15 63.97489 -22.59017 166 ft 0 kts 115°
2026-04-29 15:15 63.97489 -22.59018 166 ft 0 kts 115°
2026-04-29 15:16 63.97489 -22.59019 166 ft 0 kts 115°
2026-04-29 15:18 63.97489 -22.59020 166 ft 0 kts 115°
2026-04-29 15:19 63.97489 -22.59021 166 ft 0 kts 115°
2026-04-29 15:20 63.97489 -22.59022 166 ft 0 kts 115°
2026-04-29 15:22 63.97489 -22.59023 166 ft 0 kts 115°
2026-04-29 15:22 63.97490 -22.59023 166 ft 0 kts 115°
2026-04-29 15:23 63.97490 -22.59024 166 ft 0 kts 115°
2026-04-29 15:24 63.97490 -22.59025 166 ft 0 kts 115°
2026-04-29 15:26 63.97490 -22.59026 166 ft 0 kts 115°
2026-04-29 15:27 63.97490 -22.59027 166 ft 0 kts 115°
2026-04-29 15:28 63.97490 -22.59028 166 ft 0 kts 115°
2026-04-29 15:30 63.97490 -22.59029 166 ft 0 kts 115°
2026-04-29 15:31 63.97491 -22.59029 166 ft 0 kts 115°
2026-04-29 15:31 63.97491 -22.59030 166 ft 0 kts 115°
2026-04-29 15:32 63.97491 -22.59031 166 ft 0 kts 115°
2026-04-29 15:34 63.97491 -22.59032 166 ft 0 kts 115°
2026-04-29 15:36 63.97491 -22.59033 166 ft 0 kts 115°
2026-04-29 15:36 63.97486 -22.59024 166 ft 1 kts 188°
2026-04-29 15:36 63.97481 -22.59035 166 ft 2 kts 248°
2026-04-29 15:36 63.97481 -22.59067 167 ft 5 kts 272°
2026-04-29 15:37 63.97484 -22.59113 167 ft 2 kts 290°
2026-04-29 15:37 63.97490 -22.59169 168 ft 4 kts 237°
2026-04-29 15:37 63.97448 -22.59210 168 ft 8 kts 200°
2026-04-29 15:37 63.97400 -22.59252 168 ft 4 kts 200°
2026-04-29 15:38 63.97360 -22.59285 167 ft 7 kts 199°
2026-04-29 15:38 63.97309 -22.59329 165 ft 9 kts 202°
2026-04-29 15:38 63.97256 -22.59380 164 ft 1 kts 204°
2026-04-29 15:38 63.97233 -22.59405 164 ft 5 kts 212°
2026-04-29 15:39 63.97225 -22.59420 164 ft 2 kts 227°
2026-04-29 15:39 63.97220 -22.59452 164 ft 3 kts 263°
2026-04-29 15:39 63.97229 -22.59530 164 ft 7 kts 294°
2026-04-29 15:39 63.97252 -22.59658 164 ft 8 kts 294°
2026-04-29 15:40 63.97279 -22.59805 164 ft 13 kts 292°
2026-04-29 15:40 63.97315 -22.59999 164 ft 14 kts 292°
2026-04-29 15:40 63.97352 -22.60201 165 ft 11 kts 292°
2026-04-29 15:40 63.97363 -22.60262 165 ft 5 kts 292°
2026-04-29 15:41 63.97365 -22.60274 165 ft 0 kts 292°
2026-04-29 15:41 63.97365 -22.60276 165 ft 1 kts 292°
2026-04-29 15:41 63.97366 -22.60283 165 ft 0 kts 292°
2026-04-29 15:41 63.97371 -22.60309 165 ft 3 kts 292°
2026-04-29 15:42 63.97380 -22.60411 166 ft 9 kts 266°
2026-04-29 15:42 63.97377 -22.60491 166 ft 5 kts 266°
2026-04-29 15:42 63.97367 -22.60545 166 ft 2 kts 175°
2026-04-29 15:42 63.97329 -22.60537 164 ft 28 kts 167°
2026-04-29 15:43 63.97063 -22.60497 161 ft 52 kts 177°
2026-04-29 15:43 63.96668 -22.60526 222 ft 60 kts 179°
2026-04-29 15:43 63.96245 -22.60532 350 ft 61 kts 184°
2026-04-29 15:43 63.95834 -22.60497 476 ft 58 kts 182°
2026-04-29 15:44 63.95440 -22.60393 621 ft 59 kts 184°
2026-04-29 15:44 63.95015 -22.60254 793 ft 64 kts 183°
2026-04-29 15:44 63.94570 -22.60128 1035 ft 64 kts 183°
2026-04-29 15:44 63.94139 -22.59734 1218 ft 73 kts 152°
2026-04-29 15:45 63.93928 -22.58581 1407 ft 89 kts 112°
2026-04-29 15:45 63.93964 -22.57034 1542 ft 107 kts 94°
2026-04-29 15:45 63.94249 -22.55380 1669 ft 122 kts 60°
2026-04-29 15:45 63.95009 -22.54390 1856 ft 128 kts 21°
2026-04-29 15:46 63.95750 -22.53448 2222 ft 125 kts 30°
2026-04-29 15:46 63.96503 -22.52286 2451 ft 129 kts 37°
2026-04-29 15:46 63.97191 -22.51069 2754 ft 128 kts 41°
2026-04-29 15:46 63.97870 -22.49694 3022 ft 127 kts 47°
2026-04-29 15:47 63.98493 -22.48294 3273 ft 129 kts 50°
2026-04-29 15:47 63.99092 -22.46774 3552 ft 126 kts 56°
2026-04-29 15:47 63.99635 -22.45195 3785 ft 130 kts 59°
2026-04-29 15:47 64.00048 -22.43400 4038 ft 127 kts 86°
2026-04-29 15:48 64.00002 -22.41512 4326 ft 112 kts 124°
2026-04-29 15:48 63.99580 -22.40226 4605 ft 94 kts 162°
2026-04-29 15:48 63.99013 -22.39923 4841 ft 78 kts 200°
2026-04-29 15:48 63.98608 -22.40594 5019 ft 75 kts 233°
2026-04-29 15:49 63.98372 -22.41617 5187 ft 73 kts 235°
2026-04-29 15:49 63.98150 -22.42702 5304 ft 76 kts 236°
2026-04-29 15:49 63.97841 -22.43633 5449 ft 77 kts 206°
2026-04-29 15:49 63.97347 -22.44021 5637 ft 70 kts 196°
2026-04-29 15:50 63.96832 -22.43750 5635 ft 91 kts 160°
2026-04-29 15:50 63.96305 -22.43102 5925 ft 79 kts 172°
2026-04-29 15:50 63.95756 -22.42704 5977 ft 86 kts 180°
2026-04-29 15:50 63.95206 -22.42566 6215 ft 74 kts 189°
2026-04-29 15:51 63.94672 -22.42669 6279 ft 79 kts 198°
2026-04-29 15:51 63.94172 -22.43004 6430 ft 72 kts 206°
2026-04-29 15:51 63.93720 -22.43543 6517 ft 76 kts 214°
2026-04-29 15:51 63.93309 -22.44248 6645 ft 72 kts 214°
2026-04-29 15:52 63.92856 -22.44821 6708 ft 76 kts 205°
2026-04-29 15:52 63.92357 -22.45159 6827 ft 74 kts 196°
2026-04-29 15:52 63.91826 -22.45263 6891 ft 79 kts 187°
2026-04-29 15:52 63.91277 -22.45092 6983 ft 81 kts 179°
2026-04-29 15:53 63.90725 -22.44673 7055 ft 86 kts 172°
2026-04-29 15:53 63.90187 -22.44016 7135 ft 90 kts 164°
2026-04-29 15:53 63.89677 -22.43120 7212 ft 95 kts 156°
2026-04-29 15:53 63.89212 -22.41998 7292 ft 100 kts 148°
2026-04-29 15:54 63.88810 -22.40651 7349 ft 107 kts 136°
2026-04-29 15:54 63.88556 -22.39008 7409 ft 117 kts 119°
2026-04-29 15:54 63.88445 -22.37126 7509 ft 123 kts 112°
2026-04-29 15:54 63.88351 -22.35174 7624 ft 125 kts 114°
2026-04-29 15:55 63.88237 -22.33231 7747 ft 124 kts 116°
2026-04-29 15:55 63.88102 -22.31296 7877 ft 124 kts 117°
2026-04-29 15:55 63.87957 -22.29364 8009 ft 124 kts 117°
2026-04-29 15:55 63.87817 -22.27453 8159 ft 125 kts 117°
2026-04-29 15:56 63.87673 -22.25502 8297 ft 126 kts 118°
2026-04-29 15:56 63.87529 -22.23554 8416 ft 125 kts 118°
2026-04-29 15:56 63.87382 -22.21603 8543 ft 126 kts 118°
2026-04-29 15:56 63.87238 -22.19634 8668 ft 127 kts 118°
2026-04-29 15:57 63.87091 -22.17654 8799 ft 128 kts 119°
2026-04-29 15:57 63.86943 -22.15663 8924 ft 128 kts 119°
2026-04-29 15:57 63.86795 -22.13660 9054 ft 129 kts 119°
2026-04-29 15:57 63.86644 -22.11652 9189 ft 129 kts 120°
2026-04-29 15:58 63.86493 -22.09634 9321 ft 130 kts 120°
2026-04-29 15:58 63.86342 -22.07609 9457 ft 130 kts 120°
2026-04-29 15:58 63.86189 -22.05576 9573 ft 131 kts 120°
2026-04-29 15:58 63.86035 -22.03531 9711 ft 131 kts 120°
2026-04-29 15:59 63.85880 -22.01482 9834 ft 132 kts 120°
2026-04-29 15:59 63.85728 -21.99451 9950 ft 132 kts 120°
2026-04-29 15:59 63.85572 -21.97388 10077 ft 133 kts 121°
2026-04-29 15:59 63.85417 -21.95320 10182 ft 133 kts 121°
2026-04-29 16:00 63.85260 -21.93259 10278 ft 133 kts 121°
2026-04-29 16:00 63.85101 -21.91190 10378 ft 133 kts 122°
2026-04-29 16:00 63.84943 -21.89121 10482 ft 133 kts 122°
2026-04-29 16:00 63.84785 -21.87043 10583 ft 134 kts 122°
2026-04-29 16:01 63.84625 -21.84963 10674 ft 134 kts 122°
2026-04-29 16:01 63.84468 -21.82910 10773 ft 134 kts 122°
2026-04-29 16:01 63.84308 -21.80823 10859 ft 134 kts 123°
2026-04-29 16:01 63.84147 -21.78738 10943 ft 137 kts 128°
2026-04-29 16:02 63.83986 -21.76653 11023 ft 135 kts 123°
2026-04-29 16:02 63.83828 -21.74561 11113 ft 135 kts 123°
2026-04-29 16:02 63.83664 -21.72470 11195 ft 135 kts 124°
2026-04-29 16:02 63.83500 -21.70376 11282 ft 135 kts 124°
2026-04-29 16:03 63.83335 -21.68280 11365 ft 135 kts 124°
2026-04-29 16:03 63.83172 -21.66180 11453 ft 135 kts 124°
2026-04-29 16:03 63.83008 -21.64075 11533 ft 136 kts 124°
2026-04-29 16:03 63.82846 -21.61999 11609 ft 135 kts 124°
2026-04-29 16:04 63.82682 -21.59894 11696 ft 136 kts 124°
2026-04-29 16:04 63.82517 -21.57792 11774 ft 136 kts 124°
2026-04-29 16:04 63.82351 -21.55689 11850 ft 136 kts 125°
2026-04-29 16:04 63.82186 -21.53585 11917 ft 136 kts 125°
2026-04-29 16:05 63.82019 -21.51484 11989 ft 136 kts 125°
2026-04-29 16:05 63.81852 -21.49380 12058 ft 136 kts 125°
2026-04-29 16:05 63.81685 -21.47271 12123 ft 136 kts 126°
2026-04-29 16:05 63.81518 -21.45162 12186 ft 136 kts 126°
2026-04-29 16:06 63.81351 -21.43058 12244 ft 136 kts 126°
2026-04-29 16:06 63.81182 -21.40949 12307 ft 136 kts 126°
2026-04-29 16:06 63.81012 -21.38838 12363 ft 136 kts 126°
2026-04-29 16:06 63.80843 -21.36724 12413 ft 136 kts 126°
2026-04-29 16:07 63.80676 -21.34639 12473 ft 136 kts 126°
2026-04-29 16:07 63.80561 -21.33209 12509 ft 137 kts 126°
2026-04-29 16:07 63.80335 -21.30395 12584 ft 137 kts 126°
2026-04-29 16:07 63.80164 -21.28278 12635 ft 137 kts 126°
2026-04-29 16:08 63.79993 -21.26162 12686 ft 136 kts 127°
2026-04-29 16:08 63.79822 -21.24047 12736 ft 137 kts 127°
2026-04-29 16:08 63.79650 -21.21930 12790 ft 137 kts 127°
2026-04-29 16:08 63.79478 -21.19838 12831 ft 137 kts 127°
2026-04-29 16:09 63.79307 -21.17719 12880 ft 137 kts 127°
2026-04-29 16:09 63.79135 -21.15598 12926 ft 137 kts 127°
2026-04-29 16:09 63.78962 -21.13479 12973 ft 137 kts 127°
2026-04-29 16:09 63.78788 -21.11358 13008 ft 137 kts 128°
2026-04-29 16:10 63.78613 -21.09238 13050 ft 137 kts 128°
2026-04-29 16:10 63.78436 -21.07114 13088 ft 137 kts 127°
2026-04-29 16:10 63.78260 -21.04987 13134 ft 137 kts 128°
2026-04-29 16:10 63.78087 -21.02893 13164 ft 137 kts 127°
2026-04-29 16:11 63.77912 -21.00761 13206 ft 137 kts 128°
2026-04-29 16:11 63.77721 -20.98649 13263 ft 136 kts 130°
2026-04-29 16:11 63.77500 -20.96584 13311 ft 134 kts 132°
2026-04-29 16:11 63.77257 -20.94565 13349 ft 132 kts 134°
2026-04-29 16:12 63.77002 -20.92580 13390 ft 131 kts 135°
2026-04-29 16:12 63.76828 -20.91272 13407 ft 131 kts 135°
2026-04-29 16:12 63.76487 -20.88629 13445 ft 131 kts 134°
2026-04-29 16:12 63.76246 -20.86654 13464 ft 132 kts 133°
2026-04-29 16:13 63.76007 -20.84642 13490 ft 133 kts 133°
2026-04-29 16:13 63.75775 -20.82618 13518 ft 133 kts 133°
2026-04-29 16:13 63.75543 -20.80585 13547 ft 134 kts 133°
2026-04-29 16:13 63.75309 -20.78541 13569 ft 134 kts 133°
2026-04-29 16:14 63.75073 -20.76511 13603 ft 133 kts 133°
2026-04-29 16:14 63.74836 -20.74479 13641 ft 133 kts 133°
2026-04-29 16:14 63.74599 -20.72484 13674 ft 133 kts 133°
2026-04-29 16:14 63.74358 -20.70464 13694 ft 133 kts 134°
2026-04-29 16:15 63.74117 -20.68446 13725 ft 133 kts 134°
2026-04-29 16:15 63.73875 -20.66419 13750 ft 133 kts 134°
2026-04-29 16:15 63.73631 -20.64399 13777 ft 133 kts 134°
2026-04-29 16:15 63.73390 -20.62371 13799 ft 134 kts 133°
2026-04-29 16:16 63.73151 -20.60341 13816 ft 134 kts 133°
2026-04-29 16:16 63.72911 -20.58313 13839 ft 133 kts 134°
2026-04-29 16:16 63.72669 -20.56293 13861 ft 133 kts 134°
2026-04-29 16:16 63.72428 -20.54300 13881 ft 133 kts 134°
2026-04-29 16:17 63.72184 -20.52281 13899 ft 133 kts 134°
2026-04-29 16:17 63.71943 -20.50259 13919 ft 134 kts 134°
2026-04-29 16:17 63.71699 -20.48231 13947 ft 134 kts 134°
2026-04-29 16:17 63.71455 -20.46206 13960 ft 134 kts 134°
2026-04-29 16:18 63.71212 -20.44183 13978 ft 134 kts 134°
2026-04-29 16:18 63.70950 -20.42184 14020 ft 131 kts 137°
2026-04-29 16:18 63.70635 -20.40291 14064 ft 127 kts 143°
2026-04-29 16:18 63.70271 -20.38534 14098 ft 121 kts 147°
2026-04-29 16:19 63.69871 -20.36910 14134 ft 116 kts 152°
2026-04-29 16:19 63.69453 -20.35417 14156 ft 112 kts 155°
2026-04-29 16:19 63.69017 -20.33979 14173 ft 110 kts 156°
2026-04-29 16:19 63.68577 -20.32572 14172 ft 109 kts 156°
2026-04-29 16:20 63.68143 -20.31158 14173 ft 110 kts 155°
2026-04-29 16:20 63.67721 -20.29707 14170 ft 112 kts 154°
2026-04-29 16:20 63.67312 -20.28197 14163 ft 114 kts 151°
2026-04-29 16:20 63.66923 -20.26617 14154 ft 117 kts 149°
2026-04-29 16:21 63.66552 -20.24990 14153 ft 119 kts 147°
2026-04-29 16:21 63.66190 -20.23294 14153 ft 121 kts 146°
2026-04-29 16:21 63.65834 -20.21568 14160 ft 122 kts 145°
2026-04-29 16:21 63.65482 -20.19832 14164 ft 122 kts 145°
2026-04-29 16:22 63.65122 -20.18101 14180 ft 121 kts 146°
2026-04-29 16:22 63.64756 -20.16393 14196 ft 121 kts 147°
2026-04-29 16:22 63.64508 -20.15275 14201 ft 120 kts 147°
2026-04-29 16:22 63.63997 -20.13059 14218 ft 119 kts 149°
2026-04-29 16:23 63.63608 -20.11432 14232 ft 118 kts 149°
2026-04-29 16:23 63.63346 -20.10365 14234 ft 117 kts 150°
2026-04-29 16:23 63.62816 -20.08236 14249 ft 116 kts 150°
2026-04-29 16:23 63.62551 -20.07187 14249 ft 116 kts 150°
2026-04-29 16:24 63.62153 -20.05600 14249 ft 117 kts 150°
2026-04-29 16:24 63.61759 -20.04005 14258 ft 117 kts 150°
2026-04-29 16:24 63.61366 -20.02395 14260 ft 117 kts 149°
2026-04-29 16:24 63.60976 -20.00776 14260 ft 118 kts 149°
2026-04-29 16:25 63.60590 -19.99144 14265 ft 118 kts 148°
2026-04-29 16:25 63.60210 -19.97497 14278 ft 119 kts 148°
2026-04-29 16:25 63.59824 -19.95848 14331 ft 119 kts 149°
2026-04-29 16:25 63.59440 -19.94226 14383 ft 120 kts 148°
2026-04-29 16:26 63.59054 -19.92563 14434 ft 120 kts 148°
2026-04-29 16:26 63.58664 -19.90903 14492 ft 120 kts 148°
2026-04-29 16:26 63.58278 -19.89234 14550 ft 121 kts 148°
2026-04-29 16:26 63.57897 -19.87551 14581 ft 121 kts 147°
2026-04-29 16:27 63.57515 -19.85877 14608 ft 120 kts 148°
2026-04-29 16:27 63.57130 -19.84216 14619 ft 119 kts 149°
2026-04-29 16:27 63.56736 -19.82586 14627 ft 118 kts 150°
2026-04-29 16:27 63.56336 -19.80967 14629 ft 118 kts 150°
2026-04-29 16:28 63.55934 -19.79373 14632 ft 117 kts 151°
2026-04-29 16:28 63.55532 -19.77781 14640 ft 117 kts 150°
2026-04-29 16:28 63.55127 -19.76191 14697 ft 118 kts 150°
2026-04-29 16:28 63.54724 -19.74579 14705 ft 119 kts 150°
2026-04-29 16:29 63.54337 -19.72968 14707 ft 119 kts 149°
2026-04-29 16:29 63.53950 -19.71314 14707 ft 120 kts 148°
2026-04-29 16:29 63.53564 -19.69649 14708 ft 120 kts 148°
2026-04-29 16:29 63.53178 -19.67989 14707 ft 120 kts 148°
2026-04-29 16:30 63.52789 -19.66329 14706 ft 120 kts 148°
2026-04-29 16:30 63.52404 -19.64697 14710 ft 120 kts 149°
2026-04-29 16:30 63.52013 -19.63054 14713 ft 119 kts 149°
2026-04-29 16:30 63.51618 -19.61417 14711 ft 119 kts 149°
2026-04-29 16:31 63.51221 -19.59792 14714 ft 119 kts 149°
2026-04-29 16:31 63.50823 -19.58164 14715 ft 119 kts 149°
2026-04-29 16:31 63.50425 -19.56543 14716 ft 119 kts 149°
2026-04-29 16:31 63.50027 -19.54918 14709 ft 119 kts 149°
2026-04-29 16:32 63.49630 -19.53294 14711 ft 119 kts 149°
2026-04-29 16:32 63.49233 -19.51666 14708 ft 119 kts 149°
2026-04-29 16:32 63.48838 -19.50032 14710 ft 119 kts 149°
2026-04-29 16:32 63.48439 -19.48393 14711 ft 119 kts 149°
2026-04-29 16:33 63.47645 -19.45116 14711 ft 120 kts 149°
2026-04-29 16:33 63.47249 -19.43471 14717 ft 120 kts 149°
2026-04-29 16:33 63.46858 -19.41850 14714 ft 120 kts 149°
2026-04-29 16:34 63.46460 -19.40212 14717 ft 120 kts 149°
2026-04-29 16:34 63.46062 -19.38578 14718 ft 120 kts 149°
2026-04-29 16:34 63.45662 -19.36941 14728 ft 120 kts 149°
2026-04-29 16:34 63.45262 -19.35299 14727 ft 120 kts 149°
2026-04-29 16:35 63.44860 -19.33666 14728 ft 120 kts 149°
2026-04-29 16:35 63.44460 -19.32038 14734 ft 120 kts 149°
2026-04-29 16:35 63.44058 -19.30402 14726 ft 120 kts 149°
2026-04-29 16:35 63.43657 -19.28767 14727 ft 120 kts 149°
2026-04-29 16:36 63.43254 -19.27133 14732 ft 120 kts 149°
2026-04-29 16:36 63.42858 -19.25523 14740 ft 120 kts 149°
2026-04-29 16:36 63.42455 -19.23890 14739 ft 120 kts 149°
2026-04-29 16:36 63.42054 -19.22251 14738 ft 120 kts 148°
2026-04-29 16:37 63.41652 -19.20608 14736 ft 120 kts 148°
2026-04-29 16:37 63.41251 -19.18967 14737 ft 120 kts 148°
2026-04-29 16:37 63.40851 -19.17324 14737 ft 121 kts 148°
2026-04-29 16:37 63.40586 -19.16237 14735 ft 120 kts 148°
2026-04-29 16:38 63.40046 -19.14045 14732 ft 120 kts 148°
2026-04-29 16:38 63.39642 -19.12411 14731 ft 120 kts 148°
2026-04-29 16:38 63.39235 -19.10784 14730 ft 120 kts 149°
2026-04-29 16:38 63.38885 -19.09085 14723 ft 123 kts 143°
2026-04-29 16:39 63.38518 -19.07346 14728 ft 123 kts 146°
2026-04-29 16:39 63.38125 -19.05659 14732 ft 122 kts 148°
2026-04-29 16:39 63.37716 -19.04018 14735 ft 120 kts 149°
2026-04-29 16:39 63.37295 -19.02412 14731 ft 119 kts 150°
2026-04-29 16:40 63.36866 -19.00839 14733 ft 118 kts 151°
2026-04-29 16:40 63.36434 -18.99284 14730 ft 118 kts 151°
2026-04-29 16:40 63.36009 -18.97748 14733 ft 118 kts 151°
2026-04-29 16:40 63.35582 -18.96188 14728 ft 118 kts 150°
2026-04-29 16:41 63.35164 -18.94608 14729 ft 118 kts 149°
2026-04-29 16:41 63.34755 -18.93012 14727 ft 119 kts 149°
2026-04-29 16:41 63.34354 -18.91402 14731 ft 119 kts 148°
2026-04-29 16:41 63.33959 -18.89776 14732 ft 119 kts 147°
2026-04-29 16:42 63.33572 -18.88160 14736 ft 120 kts 147°
2026-04-29 16:42 63.33181 -18.86510 14737 ft 120 kts 147°
2026-04-29 16:42 63.32791 -18.84863 14735 ft 120 kts 147°
2026-04-29 16:42 63.32394 -18.83216 14732 ft 120 kts 147°
2026-04-29 16:43 63.31996 -18.81579 14737 ft 120 kts 147°
2026-04-29 16:43 63.31592 -18.79949 14736 ft 120 kts 148°
2026-04-29 16:43 63.31183 -18.78321 14740 ft 120 kts 148°
2026-04-29 16:43 63.30771 -18.76699 14735 ft 120 kts 148°
2026-04-29 16:44 63.30358 -18.75081 14735 ft 120 kts 148°
2026-04-29 16:44 63.29949 -18.73484 14736 ft 120 kts 148°
2026-04-29 16:44 63.29533 -18.71862 14738 ft 121 kts 148°
2026-04-29 16:44 63.29118 -18.70235 14736 ft 121 kts 147°
2026-04-29 16:45 63.28838 -18.69140 14738 ft 121 kts 148°
2026-04-29 16:45 63.28291 -18.66982 14741 ft 121 kts 147°
2026-04-29 16:45 63.27877 -18.65349 14741 ft 121 kts 147°
2026-04-29 16:45 63.27463 -18.63703 14736 ft 122 kts 147°
2026-04-29 16:46 63.27053 -18.62058 14740 ft 122 kts 147°
2026-04-29 16:46 63.26641 -18.60412 14741 ft 122 kts 147°
2026-04-29 16:46 63.26228 -18.58761 14741 ft 123 kts 147°
2026-04-29 16:46 63.25809 -18.57109 14736 ft 123 kts 147°
2026-04-29 16:47 63.25394 -18.55464 14739 ft 122 kts 147°
2026-04-29 16:47 63.24979 -18.53816 14743 ft 122 kts 147°
2026-04-29 16:47 63.24561 -18.52165 14743 ft 123 kts 147°
2026-04-29 16:47 63.24141 -18.50508 14739 ft 123 kts 146°
2026-04-29 16:48 63.23729 -18.48878 14743 ft 123 kts 146°
2026-04-29 16:48 63.23308 -18.47226 14742 ft 123 kts 147°
2026-04-29 16:48 63.22886 -18.45575 14743 ft 123 kts 146°
2026-04-29 16:48 63.22465 -18.43918 14738 ft 123 kts 146°
2026-04-29 16:49 63.22042 -18.42266 14741 ft 123 kts 147°
2026-04-29 16:49 63.21620 -18.40614 14741 ft 123 kts 146°
2026-04-29 16:49 63.21198 -18.38958 14745 ft 123 kts 146°
2026-04-29 16:49 63.20775 -18.37293 14743 ft 124 kts 146°
2026-04-29 16:50 63.20349 -18.35638 14741 ft 123 kts 146°
2026-04-29 16:50 63.19924 -18.33981 14747 ft 124 kts 146°
2026-04-29 16:50 63.19501 -18.32322 14747 ft 124 kts 146°
2026-04-29 16:50 63.19074 -18.30657 14742 ft 124 kts 146°
2026-04-29 16:51 63.18652 -18.29018 14743 ft 124 kts 146°
2026-04-29 16:51 63.18226 -18.27354 14740 ft 124 kts 145°
2026-04-29 16:51 63.17802 -18.25682 14743 ft 125 kts 145°
2026-04-29 16:51 63.17377 -18.24012 14747 ft 125 kts 146°
2026-04-29 16:52 63.16946 -18.22341 14747 ft 125 kts 146°
2026-04-29 16:52 63.16515 -18.20672 14751 ft 125 kts 146°
2026-04-29 16:52 63.16083 -18.18999 14749 ft 125 kts 145°
2026-04-29 16:52 63.15650 -18.17320 14745 ft 125 kts 145°
2026-04-29 16:53 63.15216 -18.15645 14746 ft 126 kts 145°
2026-04-29 16:53 63.14781 -18.13965 14747 ft 126 kts 145°
2026-04-29 16:53 63.14344 -18.12279 14749 ft 126 kts 145°
2026-04-29 16:53 63.13908 -18.10595 14746 ft 126 kts 145°
2026-04-29 16:54 63.13472 -18.08901 14749 ft 127 kts 144°
2026-04-29 16:54 63.13044 -18.07230 14752 ft 127 kts 144°
2026-04-29 16:54 63.12608 -18.05538 14754 ft 127 kts 144°
2026-04-29 16:54 63.12169 -18.03844 14751 ft 127 kts 144°
2026-04-29 16:55 63.11727 -18.02151 14752 ft 128 kts 144°
2026-04-29 16:55 63.11283 -18.00449 14751 ft 128 kts 144°
2026-04-29 16:55 63.10838 -17.98738 14754 ft 129 kts 144°
2026-04-29 16:55 63.10391 -17.97020 14751 ft 129 kts 144°
2026-04-29 16:56 63.09942 -17.95307 14753 ft 129 kts 144°
2026-04-29 16:56 63.09492 -17.93589 14755 ft 129 kts 144°
2026-04-29 16:56 63.09045 -17.91866 14754 ft 130 kts 143°
2026-04-29 16:56 63.08596 -17.90132 14750 ft 130 kts 143°
2026-04-29 16:57 63.08148 -17.88402 14761 ft 130 kts 143°
2026-04-29 16:57 63.07698 -17.86673 14758 ft 130 kts 143°
2026-04-29 16:57 63.07247 -17.84941 14757 ft 130 kts 143°
2026-04-29 16:57 63.06797 -17.83207 14749 ft 130 kts 143°
2026-04-29 16:58 63.06345 -17.81470 14753 ft 130 kts 143°
2026-04-29 16:58 63.05892 -17.79736 14756 ft 131 kts 143°
2026-04-29 16:58 63.05437 -17.77999 14760 ft 131 kts 143°
2026-04-29 16:58 63.04978 -17.76262 14756 ft 131 kts 143°
2026-04-29 16:59 63.04520 -17.74532 14758 ft 131 kts 143°
2026-04-29 16:59 63.04061 -17.72794 14759 ft 131 kts 143°
2026-04-29 16:59 63.03606 -17.71078 14759 ft 131 kts 143°
2026-04-29 16:59 63.03150 -17.69333 14754 ft 132 kts 142°
2026-04-29 17:00 63.02710 -17.67543 14747 ft 133 kts 140°
2026-04-29 17:00 63.02282 -17.65725 14745 ft 134 kts 139°
2026-04-29 17:00 63.01862 -17.63873 14741 ft 136 kts 138°
2026-04-29 17:00 63.01464 -17.61978 14724 ft 137 kts 135°
2026-04-29 17:01 63.01106 -17.59997 14710 ft 141 kts 131°
2026-04-29 17:01 63.00794 -17.57941 14702 ft 143 kts 127°
2026-04-29 17:01 63.00530 -17.55799 14692 ft 147 kts 123°
2026-04-29 17:01 63.00201 -17.53727 14727 ft 142 kts 133°
2026-04-29 17:02 62.99793 -17.51782 14762 ft 137 kts 139°
2026-04-29 17:02 62.99370 -17.49909 14741 ft 138 kts 135°
2026-04-29 17:02 62.98985 -17.47962 14751 ft 139 kts 134°
2026-04-29 17:02 62.98601 -17.46005 14760 ft 140 kts 134°
2026-04-29 17:03 62.98212 -17.44046 14770 ft 139 kts 134°
2026-04-29 17:03 62.97823 -17.42087 14742 ft 141 kts 134°
2026-04-29 17:03 62.97431 -17.40114 14758 ft 140 kts 134°
2026-04-29 17:03 62.97037 -17.38141 14751 ft 141 kts 134°
2026-04-29 17:04 62.96642 -17.36158 14748 ft 142 kts 134°
2026-04-29 17:04 62.96244 -17.34172 14746 ft 142 kts 134°
2026-04-29 17:04 62.95847 -17.32183 14745 ft 142 kts 134°
2026-04-29 17:04 62.95448 -17.30193 14748 ft 142 kts 134°
2026-04-29 17:05 62.95051 -17.28199 14746 ft 143 kts 134°
2026-04-29 17:05 62.94652 -17.26202 14746 ft 143 kts 134°
2026-04-29 17:05 62.94251 -17.24207 14747 ft 142 kts 134°
2026-04-29 17:05 62.93852 -17.22213 14747 ft 143 kts 134°
2026-04-29 17:06 62.93460 -17.20241 14743 ft 142 kts 134°
2026-04-29 17:06 62.93061 -17.18249 14747 ft 142 kts 134°
2026-04-29 17:06 62.92662 -17.16268 14748 ft 142 kts 134°
2026-04-29 17:06 62.92263 -17.14285 14750 ft 142 kts 134°
2026-04-29 17:07 62.91863 -17.12295 14747 ft 142 kts 134°
2026-04-29 17:07 62.91600 -17.10980 14749 ft 142 kts 134°
2026-04-29 17:07 62.91070 -17.08319 14746 ft 142 kts 134°
2026-04-29 17:07 62.90674 -17.06332 14750 ft 142 kts 134°
2026-04-29 17:08 62.90277 -17.04342 14751 ft 142 kts 134°
2026-04-29 17:08 62.89879 -17.02351 14750 ft 143 kts 134°
2026-04-29 17:08 62.89615 -17.01030 14751 ft 143 kts 134°
2026-04-29 17:08 62.89217 -16.99042 14753 ft 142 kts 134°
2026-04-29 17:09 62.88817 -16.97049 14752 ft 143 kts 134°
2026-04-29 17:09 62.88418 -16.95059 14748 ft 142 kts 134°
2026-04-29 17:09 62.87891 -16.92424 14750 ft 142 kts 134°
2026-04-29 17:09 62.87627 -16.91109 14759 ft 142 kts 134°
2026-04-29 17:10 62.87231 -16.89121 14755 ft 143 kts 134°
2026-04-29 17:10 62.86832 -16.87127 14755 ft 143 kts 134°
2026-04-29 17:10 62.86435 -16.85137 14753 ft 143 kts 134°
2026-04-29 17:10 62.86034 -16.83143 14756 ft 143 kts 134°
2026-04-29 17:11 62.85636 -16.81151 14755 ft 143 kts 134°
2026-04-29 17:11 62.85236 -16.79159 14757 ft 143 kts 134°
2026-04-29 17:11 62.84838 -16.77169 14756 ft 143 kts 134°
2026-04-29 17:11 62.84438 -16.75174 14761 ft 143 kts 134°
2026-04-29 17:12 62.84037 -16.73175 14759 ft 143 kts 134°
2026-04-29 17:12 62.83637 -16.71183 14757 ft 143 kts 134°
2026-04-29 17:12 62.83242 -16.69217 14755 ft 143 kts 134°
2026-04-29 17:12 62.82970 -16.67870 14757 ft 143 kts 134°
2026-04-29 17:13 62.82439 -16.65229 14759 ft 143 kts 134°
2026-04-29 17:13 62.82036 -16.63235 14759 ft 143 kts 134°
2026-04-29 17:13 62.81633 -16.61242 14762 ft 143 kts 134°
2026-04-29 17:13 62.81228 -16.59241 14761 ft 143 kts 134°
2026-04-29 17:14 62.80824 -16.57244 14761 ft 143 kts 134°
2026-04-29 17:14 62.80419 -16.55247 14757 ft 144 kts 134°
2026-04-29 17:14 62.80019 -16.53274 14758 ft 144 kts 134°
2026-04-29 17:14 62.79613 -16.51275 14766 ft 144 kts 134°
2026-04-29 17:15 62.79206 -16.49271 14764 ft 145 kts 134°
2026-04-29 17:15 62.78795 -16.47260 14759 ft 145 kts 134°
2026-04-29 17:15 62.78384 -16.45251 14761 ft 145 kts 134°
2026-04-29 17:15 62.77973 -16.43239 14767 ft 145 kts 134°
2026-04-29 17:16 62.77559 -16.41215 14764 ft 146 kts 134°
2026-04-29 17:16 62.77135 -16.39200 14761 ft 146 kts 136°
2026-04-29 17:16 62.76659 -16.37263 14767 ft 143 kts 141°
2026-04-29 17:16 62.76162 -16.35414 14741 ft 142 kts 137°
2026-04-29 17:17 62.75730 -16.33440 14725 ft 145 kts 135°
2026-04-29 17:17 62.75306 -16.31442 14716 ft 145 kts 135°
2026-04-29 17:17 62.74878 -16.29434 14706 ft 146 kts 135°
2026-04-29 17:17 62.74452 -16.27435 14716 ft 145 kts 135°
2026-04-29 17:18 62.74031 -16.25459 14695 ft 146 kts 135°
2026-04-29 17:18 62.73606 -16.23459 14705 ft 145 kts 135°
2026-04-29 17:18 62.73182 -16.21458 14691 ft 146 kts 135°
2026-04-29 17:18 62.72758 -16.19459 14690 ft 145 kts 135°
2026-04-29 17:19 62.72335 -16.17458 14682 ft 145 kts 135°
2026-04-29 17:19 62.71912 -16.15456 14678 ft 145 kts 135°
2026-04-29 17:19 62.71491 -16.13455 14670 ft 145 kts 135°
2026-04-29 17:19 62.71068 -16.11454 14672 ft 145 kts 135°
2026-04-29 17:20 62.70648 -16.09456 14660 ft 145 kts 135°
2026-04-29 17:20 62.70228 -16.07452 14656 ft 145 kts 135°
2026-04-29 17:20 62.69810 -16.05459 14647 ft 145 kts 135°
2026-04-29 17:20 62.69390 -16.03454 14645 ft 145 kts 134°
2026-04-29 17:21 62.68974 -16.01452 14637 ft 145 kts 134°
2026-04-29 17:21 62.68559 -15.99450 14625 ft 145 kts 134°
2026-04-29 17:21 62.68148 -15.97479 14610 ft 145 kts 134°
2026-04-29 17:21 62.67730 -15.95477 14605 ft 145 kts 134°
2026-04-29 17:22 62.67314 -15.93473 14578 ft 145 kts 134°
2026-04-29 17:22 62.66899 -15.91467 14549 ft 145 kts 134°
2026-04-29 17:22 62.66482 -15.89463 14528 ft 145 kts 134°
2026-04-29 17:22 62.66067 -15.87463 14505 ft 145 kts 134°
2026-04-29 17:23 62.65654 -15.85460 14467 ft 146 kts 134°
2026-04-29 17:23 62.65232 -15.83436 14454 ft 147 kts 134°
2026-04-29 17:23 62.64775 -15.81318 14218 ft 162 kts 133°
2026-04-29 17:23 62.64278 -15.79100 13981 ft 161 kts 134°
2026-04-29 17:24 62.63796 -15.76948 13687 ft 156 kts 134°
2026-04-29 17:24 62.63320 -15.74850 13339 ft 155 kts 135°
2026-04-29 17:24 62.62831 -15.72736 12896 ft 160 kts 134°
2026-04-29 17:24 62.62354 -15.70577 12608 ft 155 kts 132°
2026-04-29 17:25 62.61932 -15.68565 12568 ft 136 kts 135°
2026-04-29 17:25 62.61544 -15.66830 12503 ft 127 kts 140°
2026-04-29 17:25 62.61114 -15.65179 12471 ft 128 kts 143°
2026-04-29 17:25 62.60619 -15.63582 12501 ft 123 kts 147°
2026-04-29 17:26 62.60104 -15.62108 12492 ft 122 kts 152°
2026-04-29 17:26 62.59555 -15.60750 12501 ft 118 kts 155°
2026-04-29 17:26 62.58978 -15.59508 12506 ft 115 kts 160°
2026-04-29 17:26 62.58450 -15.58159 12407 ft 125 kts 146°
2026-04-29 17:27 62.57928 -15.56693 12478 ft 119 kts 152°
2026-04-29 17:27 62.57377 -15.55358 12456 ft 120 kts 156°
2026-04-29 17:27 62.56799 -15.54158 12570 ft 110 kts 161°
2026-04-29 17:27 62.56210 -15.53094 12574 ft 111 kts 165°
2026-04-29 17:28 62.55572 -15.52121 12577 ft 111 kts 169°
2026-04-29 17:28 62.54918 -15.51300 12577 ft 110 kts 173°
2026-04-29 17:28 62.54378 -15.50151 12564 ft 118 kts 143°
2026-04-29 17:28 62.53897 -15.48609 12570 ft 125 kts 147°
2026-04-29 17:29 62.53392 -15.47058 12574 ft 126 kts 147°
2026-04-29 17:29 62.52891 -15.45489 12570 ft 127 kts 146°
2026-04-29 17:29 62.52396 -15.43883 12568 ft 129 kts 144°
2026-04-29 17:29 62.52064 -15.42777 12579 ft 135 kts 143°
2026-04-29 17:30 62.51368 -15.40399 12574 ft 144 kts 141°
2026-04-29 17:30 62.50832 -15.38530 12589 ft 148 kts 140°
2026-04-29 17:30 62.50294 -15.36623 12595 ft 151 kts 139°
2026-04-29 17:30 62.49744 -15.34664 12600 ft 153 kts 139°
2026-04-29 17:31 62.49185 -15.32676 12599 ft 155 kts 139°
2026-04-29 17:31 62.48622 -15.30673 12602 ft 156 kts 139°
2026-04-29 17:31 62.48053 -15.28678 12601 ft 156 kts 140°
2026-04-29 17:31 62.47474 -15.26688 12608 ft 156 kts 140°
2026-04-29 17:32 62.46897 -15.24731 12615 ft 156 kts 141°
2026-04-29 17:32 62.46305 -15.22771 12620 ft 155 kts 141°
2026-04-29 17:32 62.45707 -15.20823 12622 ft 155 kts 141°
2026-04-29 17:32 62.45108 -15.18890 12627 ft 155 kts 141°
2026-04-29 17:33 62.44518 -15.16976 12629 ft 154 kts 141°
2026-04-29 17:33 62.43925 -15.15039 12631 ft 155 kts 141°
2026-04-29 17:33 62.43336 -15.13100 12631 ft 154 kts 141°
2026-04-29 17:33 62.42752 -15.11163 12637 ft 154 kts 141°
2026-04-29 17:34 62.42171 -15.09229 12634 ft 153 kts 141°
2026-04-29 17:34 62.41591 -15.07300 12635 ft 153 kts 141°
2026-04-29 17:34 62.41014 -15.05386 12628 ft 152 kts 141°
2026-04-29 17:34 62.40434 -15.03462 12634 ft 152 kts 141°
2026-04-29 17:35 62.39477 -15.00283 12626 ft 152 kts 141°
2026-04-29 17:35 62.38714 -14.97749 12618 ft 152 kts 141°
2026-04-29 17:35 62.38137 -14.95842 12620 ft 152 kts 141°
2026-04-29 17:36 62.37562 -14.93939 12616 ft 151 kts 142°
2026-04-29 17:36 62.36987 -14.92040 12608 ft 151 kts 141°
2026-04-29 17:36 62.36414 -14.90153 12607 ft 150 kts 142°
2026-04-29 17:36 62.35840 -14.88279 12610 ft 150 kts 142°
2026-04-29 17:37 62.35267 -14.86409 12605 ft 149 kts 142°
2026-04-29 17:37 62.34696 -14.84550 12605 ft 149 kts 143°
2026-04-29 17:37 62.34130 -14.82707 12605 ft 146 kts 143°
2026-04-29 17:37 62.33573 -14.80872 12605 ft 147 kts 143°
2026-04-29 17:38 62.33020 -14.79057 12604 ft 147 kts 143°
2026-04-29 17:38 62.32455 -14.77218 12606 ft 147 kts 143°
2026-04-29 17:38 62.31895 -14.75387 12600 ft 145 kts 143°
2026-04-29 17:38 62.31343 -14.73576 12605 ft 145 kts 143°
2026-04-29 17:39 62.30784 -14.71761 12604 ft 146 kts 143°
2026-04-29 17:39 62.30219 -14.69942 12609 ft 148 kts 143°
2026-04-29 17:39 62.29640 -14.68092 12610 ft 149 kts 143°
2026-04-29 17:39 62.29058 -14.66235 12616 ft 151 kts 143°
2026-04-29 17:40 62.28472 -14.64357 12618 ft 152 kts 143°
2026-04-29 17:40 62.27882 -14.62458 12619 ft 153 kts 143°
2026-04-29 17:40 62.27290 -14.60551 12621 ft 153 kts 142°
2026-04-29 17:40 62.26701 -14.58638 12627 ft 154 kts 143°
2026-04-29 17:41 62.26120 -14.56743 12633 ft 154 kts 142°
2026-04-29 17:41 62.25541 -14.54829 12633 ft 152 kts 142°
2026-04-29 17:41 62.24957 -14.52913 12637 ft 153 kts 143°
2026-04-29 17:41 62.24371 -14.50998 12643 ft 154 kts 142°
2026-04-29 17:42 62.23784 -14.49075 12646 ft 154 kts 143°
2026-04-29 17:42 62.23196 -14.47154 12657 ft 154 kts 143°
2026-04-29 17:42 62.22602 -14.45243 12663 ft 154 kts 143°
2026-04-29 17:42 62.22004 -14.43341 12667 ft 154 kts 143°
2026-04-29 17:43 62.21406 -14.41440 12677 ft 154 kts 144°
2026-04-29 17:43 62.20806 -14.39544 12685 ft 154 kts 144°
2026-04-29 17:43 62.20210 -14.37643 12691 ft 154 kts 143°
2026-04-29 17:43 62.19613 -14.35730 12702 ft 154 kts 143°
2026-04-29 17:44 62.19018 -14.33816 12707 ft 155 kts 143°
2026-04-29 17:44 62.18425 -14.31916 12720 ft 155 kts 143°
2026-04-29 17:44 62.17825 -14.30002 12729 ft 155 kts 143°
2026-04-29 17:44 62.17223 -14.28080 12742 ft 155 kts 143°
2026-04-29 17:45 62.16620 -14.26155 12755 ft 156 kts 143°
2026-04-29 17:45 62.16017 -14.24228 12766 ft 156 kts 143°
2026-04-29 17:45 62.15411 -14.22296 12775 ft 156 kts 143°
2026-04-29 17:45 62.14806 -14.20371 12794 ft 156 kts 143°
2026-04-29 17:46 62.14206 -14.18438 12803 ft 156 kts 143°
2026-04-29 17:46 62.13606 -14.16504 12815 ft 156 kts 143°
2026-04-29 17:46 62.13012 -14.14599 12828 ft 156 kts 143°
2026-04-29 17:46 62.12405 -14.12674 12843 ft 156 kts 143°
2026-04-29 17:47 62.11795 -14.10760 12859 ft 156 kts 144°
2026-04-29 17:47 62.11185 -14.08850 12871 ft 156 kts 144°
2026-04-29 17:47 62.10574 -14.06933 12880 ft 156 kts 144°
2026-04-29 17:47 62.09962 -14.05017 12900 ft 156 kts 143°
2026-04-29 17:48 62.09352 -14.03099 12908 ft 156 kts 144°
2026-04-29 17:48 62.08751 -14.01203 12923 ft 156 kts 143°
2026-04-29 17:48 62.08146 -13.99282 12932 ft 156 kts 143°
2026-04-29 17:48 62.07543 -13.97362 12947 ft 156 kts 143°
2026-04-29 17:49 62.06942 -13.95445 12964 ft 155 kts 143°
2026-04-29 17:49 62.06341 -13.93531 12966 ft 155 kts 143°
2026-04-29 17:49 62.05737 -13.91615 12984 ft 155 kts 143°
2026-04-29 17:49 62.05138 -13.89724 12998 ft 155 kts 143°
2026-04-29 17:50 62.04537 -13.87802 13009 ft 155 kts 143°
2026-04-29 17:50 62.03937 -13.85899 13024 ft 155 kts 144°
2026-04-29 17:50 62.03333 -13.84034 13034 ft 154 kts 144°
2026-04-29 17:50 62.02723 -13.82165 13049 ft 154 kts 144°
2026-04-29 17:51 62.02113 -13.80298 13059 ft 153 kts 144°
2026-04-29 17:51 62.01505 -13.78432 13070 ft 153 kts 144°
2026-04-29 17:51 62.00898 -13.76560 13080 ft 153 kts 144°
2026-04-29 17:51 62.00292 -13.74682 13096 ft 153 kts 144°
2026-04-29 17:52 61.99695 -13.72801 13108 ft 153 kts 144°
2026-04-29 17:52 61.99299 -13.71554 13111 ft 153 kts 144°
2026-04-29 17:52 61.98502 -13.69039 13125 ft 153 kts 144°
2026-04-29 17:52 61.97908 -13.67149 13139 ft 153 kts 144°
2026-04-29 17:53 61.97310 -13.65265 13148 ft 153 kts 144°
2026-04-29 17:53 61.96717 -13.63419 13158 ft 153 kts 144°
2026-04-29 17:53 61.96112 -13.61551 13170 ft 153 kts 144°
2026-04-29 17:53 61.95508 -13.59690 13185 ft 152 kts 144°
2026-04-29 17:54 61.94910 -13.57835 13196 ft 152 kts 144°
2026-04-29 17:54 61.94311 -13.55980 13207 ft 152 kts 144°
2026-04-29 17:54 61.93708 -13.54128 13215 ft 152 kts 145°
2026-04-29 17:54 61.93106 -13.52285 13229 ft 152 kts 145°
2026-04-29 17:55 61.92508 -13.50438 13239 ft 152 kts 144°
2026-04-29 17:55 61.91909 -13.48599 13248 ft 151 kts 144°
2026-04-29 17:55 61.91319 -13.46781 13258 ft 151 kts 144°
2026-04-29 17:55 61.90724 -13.44938 13271 ft 151 kts 144°
2026-04-29 17:56 61.90135 -13.43093 13282 ft 151 kts 144°
2026-04-29 17:56 61.89540 -13.41251 13289 ft 151 kts 144°
2026-04-29 17:56 61.88944 -13.39417 13302 ft 151 kts 145°
2026-04-29 17:56 61.88347 -13.37587 13317 ft 151 kts 145°
2026-04-29 17:57 61.87752 -13.35759 13319 ft 150 kts 145°
2026-04-29 17:57 61.87357 -13.34554 13332 ft 150 kts 145°
2026-04-29 17:57 61.86560 -13.32116 13346 ft 151 kts 145°
2026-04-29 17:57 61.86166 -13.30908 13356 ft 150 kts 145°
2026-04-29 17:58 61.85571 -13.29084 13363 ft 150 kts 145°
2026-04-29 17:58 61.84977 -13.27265 13373 ft 151 kts 145°
2026-04-29 17:58 61.84376 -13.25440 13387 ft 151 kts 145°
2026-04-29 17:58 61.83773 -13.23617 13403 ft 151 kts 145°
2026-04-29 17:59 61.83174 -13.21798 13412 ft 150 kts 145°
2026-04-29 17:59 61.82578 -13.19982 13423 ft 150 kts 145°
2026-04-29 17:59 61.81986 -13.18170 13432 ft 149 kts 145°
2026-04-29 17:59 61.81402 -13.16379 13442 ft 149 kts 145°
2026-04-29 18:00 61.80815 -13.14570 13454 ft 149 kts 145°
2026-04-29 18:00 61.80225 -13.12765 13460 ft 149 kts 146°
2026-04-29 18:00 61.79637 -13.10969 13471 ft 149 kts 146°
2026-04-29 18:00 61.79048 -13.09171 13478 ft 148 kts 145°
2026-04-29 18:01 61.78460 -13.07386 13488 ft 148 kts 146°
2026-04-29 18:01 61.77869 -13.05611 13504 ft 147 kts 146°
2026-04-29 18:01 61.77286 -13.03862 13507 ft 147 kts 146°
2026-04-29 18:01 61.76694 -13.02095 13514 ft 147 kts 146°
2026-04-29 18:02 61.76105 -13.00325 13522 ft 147 kts 146°
2026-04-29 18:02 61.75520 -12.98553 13532 ft 147 kts 146°
2026-04-29 18:02 61.74932 -12.96784 13538 ft 147 kts 146°
2026-04-29 18:02 61.74345 -12.95020 13557 ft 147 kts 146°
2026-04-29 18:03 61.73758 -12.93259 13568 ft 147 kts 146°
2026-04-29 18:03 61.73173 -12.91494 13571 ft 147 kts 146°
2026-04-29 18:03 61.72586 -12.89726 13574 ft 147 kts 146°
2026-04-29 18:03 61.72001 -12.87967 13581 ft 147 kts 146°
2026-04-29 18:04 61.71424 -12.86233 13593 ft 146 kts 146°
2026-04-29 18:04 61.70840 -12.84476 13598 ft 146 kts 146°
2026-04-29 18:04 61.70255 -12.82718 13610 ft 147 kts 146°
2026-04-29 18:04 61.69669 -12.80960 13618 ft 146 kts 146°
2026-04-29 18:05 61.69084 -12.79205 13624 ft 146 kts 146°
2026-04-29 18:05 61.68498 -12.77451 13629 ft 146 kts 146°
2026-04-29 18:05 61.67912 -12.75699 13640 ft 146 kts 146°
2026-04-29 18:05 61.67325 -12.73942 13652 ft 146 kts 146°
2026-04-29 18:06 61.66741 -12.72190 13657 ft 146 kts 146°
2026-04-29 18:06 61.66154 -12.70440 13665 ft 146 kts 146°
2026-04-29 18:06 61.65567 -12.68695 13671 ft 146 kts 146°
2026-04-29 18:06 61.64988 -12.66974 13682 ft 146 kts 146°
2026-04-29 18:07 61.64400 -12.65235 13692 ft 146 kts 146°
2026-04-29 18:07 61.63812 -12.63496 13697 ft 146 kts 146°
2026-04-29 18:07 61.63226 -12.61753 13706 ft 146 kts 145°
2026-04-29 18:07 61.62638 -12.60009 13711 ft 146 kts 145°
2026-04-29 18:08 61.62054 -12.58266 13725 ft 146 kts 145°
2026-04-29 18:08 61.61469 -12.56519 13731 ft 146 kts 145°
2026-04-29 18:08 61.60881 -12.54768 13738 ft 146 kts 145°
2026-04-29 18:08 61.60296 -12.53023 13747 ft 146 kts 145°
2026-04-29 18:09 61.59708 -12.51283 13754 ft 146 kts 145°
2026-04-29 18:09 61.59122 -12.49547 13762 ft 146 kts 145°
2026-04-29 18:09 61.58540 -12.47826 13769 ft 146 kts 145°
2026-04-29 18:09 61.57948 -12.46094 13776 ft 146 kts 145°
2026-04-29 18:10 61.57357 -12.44366 13782 ft 146 kts 145°
2026-04-29 18:10 61.56763 -12.42631 13793 ft 146 kts 145°
2026-04-29 18:10 61.56174 -12.40905 13796 ft 146 kts 145°
2026-04-29 18:10 61.55583 -12.39166 13802 ft 146 kts 145°
2026-04-29 18:11 61.54996 -12.37435 13809 ft 146 kts 145°
2026-04-29 18:11 61.54409 -12.35695 13816 ft 146 kts 145°
2026-04-29 18:11 61.53825 -12.33961 13831 ft 146 kts 144°
2026-04-29 18:11 61.53236 -12.32224 13834 ft 146 kts 145°
2026-04-29 18:12 61.52653 -12.30518 13842 ft 146 kts 145°
2026-04-29 18:12 61.52060 -12.28793 13850 ft 146 kts 145°
2026-04-29 18:12 61.51470 -12.27072 13854 ft 145 kts 145°
2026-04-29 18:12 61.50880 -12.25351 13859 ft 146 kts 145°
2026-04-29 18:13 61.50292 -12.23624 13867 ft 146 kts 144°
2026-04-29 18:13 61.49704 -12.21897 13873 ft 146 kts 144°
2026-04-29 18:13 61.49115 -12.20163 13881 ft 146 kts 144°
2026-04-29 18:13 61.48532 -12.18454 13885 ft 145 kts 144°
2026-04-29 18:14 61.47944 -12.16730 13894 ft 146 kts 144°
2026-04-29 18:14 61.47353 -12.15014 13902 ft 145 kts 144°
2026-04-29 18:14 61.46762 -12.13298 13908 ft 145 kts 144°
2026-04-29 18:14 61.46169 -12.11584 13915 ft 145 kts 144°
2026-04-29 18:15 61.45573 -12.09871 13924 ft 145 kts 145°
2026-04-29 18:15 61.44978 -12.08159 13926 ft 145 kts 144°
2026-04-29 18:15 61.44386 -12.06450 13933 ft 145 kts 144°
2026-04-29 18:15 61.43795 -12.04739 13940 ft 145 kts 144°
2026-04-29 18:16 61.43205 -12.03027 13949 ft 145 kts 144°
2026-04-29 18:16 61.42619 -12.01311 13955 ft 145 kts 144°
2026-04-29 18:16 61.42029 -11.99588 13961 ft 145 kts 144°
2026-04-29 18:16 61.41448 -11.97897 13965 ft 145 kts 144°
2026-04-29 18:17 61.40854 -11.96187 13972 ft 145 kts 144°
2026-04-29 18:17 61.40264 -11.94482 13980 ft 145 kts 144°
2026-04-29 18:17 61.39674 -11.92773 13984 ft 145 kts 144°
2026-04-29 18:17 61.39084 -11.91067 13988 ft 145 kts 144°
2026-04-29 18:18 61.38491 -11.89363 13999 ft 145 kts 144°
2026-04-29 18:18 61.37897 -11.87660 14000 ft 145 kts 144°
2026-04-29 18:18 61.37304 -11.85964 14010 ft 145 kts 144°
2026-04-29 18:18 61.36711 -11.84271 14019 ft 145 kts 144°
2026-04-29 18:19 61.36118 -11.82578 14021 ft 145 kts 144°
2026-04-29 18:19 61.35535 -11.80901 14026 ft 145 kts 144°
2026-04-29 18:19 61.34944 -11.79197 14035 ft 145 kts 143°
2026-04-29 18:19 61.34353 -11.77486 14039 ft 145 kts 144°
2026-04-29 18:20 61.33763 -11.75784 14046 ft 145 kts 144°
2026-04-29 18:20 61.33170 -11.74081 14054 ft 145 kts 144°
2026-04-29 18:20 61.32577 -11.72386 14058 ft 145 kts 144°
2026-04-29 18:20 61.31983 -11.70683 14054 ft 145 kts 144°
2026-04-29 18:21 61.31389 -11.68989 14069 ft 145 kts 144°
2026-04-29 18:21 61.30793 -11.67297 14070 ft 145 kts 144°
2026-04-29 18:21 61.30199 -11.65606 14077 ft 145 kts 144°
2026-04-29 18:21 61.29605 -11.63917 14086 ft 145 kts 144°
2026-04-29 18:22 61.29017 -11.62251 14092 ft 144 kts 144°
2026-04-29 18:22 61.28421 -11.60560 14093 ft 145 kts 144°
2026-04-29 18:22 61.27826 -11.58871 14101 ft 144 kts 144°
2026-04-29 18:22 61.27232 -11.57182 14106 ft 145 kts 144°
2026-04-29 18:23 61.26636 -11.55492 14112 ft 145 kts 144°
2026-04-29 18:23 61.26049 -11.53822 14120 ft 145 kts 143°
2026-04-29 18:23 61.25457 -11.52132 14123 ft 145 kts 143°
2026-04-29 18:23 61.24863 -11.50439 14128 ft 145 kts 144°
2026-04-29 18:24 61.24267 -11.48751 14133 ft 145 kts 144°
2026-04-29 18:24 61.23671 -11.47068 14137 ft 145 kts 144°
2026-04-29 18:24 61.23075 -11.45380 14142 ft 145 kts 144°
2026-04-29 18:24 61.22477 -11.43696 14149 ft 145 kts 144°
2026-04-29 18:25 61.21886 -11.42035 14154 ft 145 kts 144°
2026-04-29 18:25 61.21286 -11.40351 14158 ft 145 kts 144°
2026-04-29 18:25 61.20688 -11.38674 14162 ft 145 kts 144°
2026-04-29 18:25 61.20091 -11.36992 14171 ft 145 kts 144°
2026-04-29 18:26 61.19495 -11.35307 14174 ft 145 kts 143°
2026-04-29 18:26 61.18901 -11.33625 14176 ft 145 kts 143°
2026-04-29 18:26 61.18304 -11.31937 14184 ft 145 kts 143°
2026-04-29 18:26 61.17705 -11.30254 14189 ft 145 kts 143°
2026-04-29 18:27 61.17107 -11.28575 14194 ft 145 kts 144°
2026-04-29 18:27 61.16506 -11.26896 14202 ft 145 kts 144°
2026-04-29 18:27 61.15904 -11.25222 14203 ft 144 kts 144°
2026-04-29 18:27 61.15312 -11.23567 14204 ft 145 kts 144°
2026-04-29 18:28 61.14713 -11.21890 14217 ft 145 kts 144°
2026-04-29 18:28 61.14114 -11.20218 14217 ft 145 kts 144°
2026-04-29 18:28 61.13513 -11.18544 14223 ft 144 kts 143°
2026-04-29 18:28 61.12915 -11.16868 14229 ft 145 kts 143°
2026-04-29 18:29 61.12317 -11.15195 14234 ft 145 kts 144°
2026-04-29 18:29 61.11921 -11.14086 14237 ft 145 kts 143°
2026-04-29 18:29 61.11126 -11.11867 14244 ft 145 kts 143°
2026-04-29 18:29 61.10520 -11.10175 14247 ft 145 kts 144°
2026-04-29 18:30 61.09925 -11.08526 14250 ft 145 kts 144°
2026-04-29 18:30 61.09323 -11.06860 14255 ft 144 kts 144°
2026-04-29 18:30 61.08723 -11.05188 14262 ft 145 kts 143°
2026-04-29 18:30 61.08125 -11.03520 14265 ft 145 kts 144°
2026-04-29 18:31 61.07525 -11.01850 14268 ft 145 kts 144°
2026-04-29 18:31 61.06923 -11.00185 14277 ft 144 kts 144°
2026-04-29 18:31 61.06321 -10.98526 14279 ft 144 kts 144°
2026-04-29 18:31 61.05717 -10.96869 14283 ft 144 kts 144°
2026-04-29 18:32 61.05122 -10.95230 14285 ft 145 kts 144°
2026-04-29 18:32 61.03915 -10.91901 14298 ft 145 kts 144°
2026-04-29 18:32 61.03312 -10.90232 14297 ft 145 kts 143°
2026-04-29 18:33 61.02710 -10.88565 14302 ft 145 kts 143°
2026-04-29 18:33 61.02107 -10.86899 14301 ft 145 kts 143°
2026-04-29 18:33 61.01504 -10.85232 14314 ft 145 kts 143°
2026-04-29 18:33 61.00909 -10.83584 14316 ft 145 kts 143°
2026-04-29 18:34 61.00304 -10.81922 14318 ft 145 kts 144°
2026-04-29 18:34 60.99895 -10.80799 14323 ft 145 kts 143°
2026-04-29 18:34 60.99093 -10.78601 14328 ft 145 kts 143°
2026-04-29 18:34 60.98490 -10.76937 14331 ft 145 kts 143°
2026-04-29 18:35 60.97885 -10.75276 14336 ft 145 kts 143°
2026-04-29 18:35 60.97280 -10.73617 14340 ft 145 kts 143°
2026-04-29 18:35 60.96674 -10.71960 14344 ft 145 kts 143°
2026-04-29 18:35 60.96067 -10.70306 14346 ft 145 kts 144°
2026-04-29 18:36 60.95460 -10.68655 14354 ft 145 kts 144°
2026-04-29 18:36 60.94858 -10.67018 14358 ft 145 kts 144°
2026-04-29 18:36 60.94242 -10.65344 14361 ft 145 kts 143°
2026-04-29 18:36 60.93643 -10.63705 14367 ft 145 kts 144°
2026-04-29 18:37 60.93036 -10.62049 14372 ft 145 kts 143°
2026-04-29 18:37 60.92430 -10.60392 14372 ft 145 kts 143°
2026-04-29 18:37 60.91823 -10.58730 14375 ft 145 kts 143°
2026-04-29 18:37 60.91216 -10.57072 14382 ft 145 kts 143°
2026-04-29 18:38 60.90608 -10.55415 14385 ft 145 kts 143°
2026-04-29 18:38 60.89999 -10.53761 14390 ft 145 kts 143°
2026-04-29 18:38 60.89390 -10.52115 14395 ft 145 kts 144°
2026-04-29 18:38 60.88780 -10.50469 14398 ft 145 kts 143°
2026-04-29 18:39 60.88170 -10.48821 14399 ft 145 kts 143°
2026-04-29 18:39 60.87567 -10.47191 14403 ft 145 kts 143°
2026-04-29 18:39 60.86957 -10.45542 14407 ft 145 kts 143°
2026-04-29 18:39 60.86348 -10.43893 14417 ft 145 kts 143°
2026-04-29 18:40 60.85737 -10.42241 14420 ft 145 kts 143°
2026-04-29 18:40 60.85129 -10.40595 14421 ft 145 kts 143°
2026-04-29 18:40 60.84520 -10.38940 14424 ft 145 kts 143°
2026-04-29 18:40 60.83910 -10.37284 14427 ft 145 kts 143°
2026-04-29 18:41 60.82079 -10.32352 14442 ft 145 kts 143°
2026-04-29 18:41 60.81468 -10.30713 14445 ft 145 kts 143°
2026-04-29 18:42 60.80854 -10.29075 14446 ft 145 kts 143°
2026-04-29 18:42 60.80248 -10.27456 14454 ft 145 kts 143°
2026-04-29 18:42 60.79636 -10.25818 14457 ft 145 kts 143°
2026-04-29 18:42 60.79024 -10.24181 14463 ft 145 kts 143°
2026-04-29 18:43 60.78413 -10.22541 14465 ft 145 kts 143°
2026-04-29 18:43 60.77802 -10.20899 14475 ft 145 kts 143°
2026-04-29 18:43 60.77196 -10.19259 14480 ft 145 kts 143°
2026-04-29 18:43 60.76587 -10.17620 14477 ft 145 kts 143°
2026-04-29 18:44 60.75975 -10.15986 14481 ft 144 kts 143°
2026-04-29 18:44 60.75364 -10.14353 14485 ft 145 kts 143°
2026-04-29 18:44 60.74753 -10.12719 14488 ft 145 kts 143°
2026-04-29 18:44 60.74142 -10.11081 14490 ft 145 kts 143°
2026-04-29 18:45 60.73529 -10.09447 14498 ft 145 kts 143°
2026-04-29 18:45 60.72924 -10.07838 14499 ft 144 kts 143°
2026-04-29 18:45 60.72310 -10.06213 14506 ft 144 kts 144°
2026-04-29 18:45 60.71694 -10.04594 14507 ft 144 kts 144°
2026-04-29 18:46 60.71078 -10.02968 14514 ft 144 kts 143°
2026-04-29 18:46 60.70671 -10.01891 14514 ft 144 kts 143°
2026-04-29 18:46 60.69851 -9.99720 14518 ft 144 kts 143°
2026-04-29 18:46 60.69447 -9.98644 14522 ft 144 kts 143°
2026-04-29 18:47 60.68632 -9.96466 14525 ft 144 kts 143°
2026-04-29 18:47 60.68227 -9.95388 14529 ft 144 kts 143°
2026-04-29 18:47 60.67615 -9.93758 14531 ft 144 kts 143°
2026-04-29 18:47 60.66803 -9.91608 14537 ft 144 kts 143°
2026-04-29 18:48 60.66389 -9.90517 14540 ft 144 kts 143°
2026-04-29 18:48 60.65775 -9.88899 14544 ft 144 kts 143°
2026-04-29 18:48 60.65162 -9.87284 14541 ft 144 kts 143°
2026-04-29 18:48 60.64549 -9.85670 14552 ft 144 kts 143°
2026-04-29 18:49 60.63945 -9.84070 14557 ft 144 kts 143°
2026-04-29 18:49 60.63333 -9.82456 14565 ft 144 kts 143°
2026-04-29 18:49 60.62719 -9.80841 14564 ft 144 kts 143°
2026-04-29 18:49 60.62103 -9.79227 14570 ft 144 kts 143°
2026-04-29 18:50 60.61489 -9.77610 14572 ft 144 kts 143°
2026-04-29 18:50 60.60875 -9.75998 14576 ft 144 kts 143°
2026-04-29 18:50 60.60260 -9.74389 14576 ft 144 kts 143°
2026-04-29 18:50 60.59644 -9.72778 14580 ft 144 kts 143°
2026-04-29 18:51 60.59038 -9.71187 14589 ft 144 kts 143°
2026-04-29 18:51 60.58426 -9.69573 14590 ft 144 kts 143°
2026-04-29 18:51 60.57810 -9.67965 14595 ft 144 kts 143°
2026-04-29 18:51 60.57193 -9.66355 14601 ft 144 kts 143°
2026-04-29 18:52 60.56579 -9.64751 14604 ft 144 kts 143°
2026-04-29 18:52 60.55965 -9.63146 14608 ft 144 kts 143°
2026-04-29 18:52 60.55350 -9.61541 14612 ft 144 kts 143°
2026-04-29 18:52 60.54735 -9.59939 14616 ft 144 kts 143°
2026-04-29 18:53 60.54127 -9.58351 14619 ft 144 kts 143°
2026-04-29 18:53 60.53512 -9.56751 14619 ft 144 kts 143°
2026-04-29 18:53 60.52897 -9.55148 14622 ft 144 kts 143°
2026-04-29 18:53 60.52281 -9.53546 14627 ft 144 kts 143°
2026-04-29 18:54 60.51666 -9.51948 14633 ft 144 kts 143°
2026-04-29 18:54 60.51051 -9.50351 14636 ft 144 kts 143°
2026-04-29 18:54 60.50435 -9.48751 14638 ft 143 kts 143°
2026-04-29 18:54 60.49819 -9.47154 14644 ft 144 kts 143°
2026-04-29 18:55 60.49203 -9.45557 14646 ft 144 kts 143°
2026-04-29 18:55 60.48595 -9.43982 14651 ft 144 kts 143°
2026-04-29 18:55 60.47979 -9.42386 14651 ft 143 kts 143°
2026-04-29 18:55 60.47363 -9.40792 14653 ft 144 kts 143°
2026-04-29 18:56 60.46745 -9.39197 14657 ft 144 kts 143°
2026-04-29 18:56 60.46129 -9.37605 14660 ft 143 kts 143°
2026-04-29 18:56 60.45514 -9.36016 14663 ft 143 kts 143°
2026-04-29 18:56 60.44896 -9.34422 14666 ft 144 kts 143°
2026-04-29 18:57 60.44277 -9.32827 14668 ft 144 kts 143°
2026-04-29 18:57 60.43668 -9.31257 14666 ft 144 kts 143°
2026-04-29 18:57 60.43049 -9.29665 14673 ft 144 kts 143°
2026-04-29 18:57 60.42432 -9.28075 14676 ft 144 kts 143°
2026-04-29 18:58 60.41811 -9.26479 14671 ft 144 kts 143°
2026-04-29 18:58 60.41193 -9.24890 14682 ft 143 kts 143°
2026-04-29 18:58 60.40573 -9.23299 14683 ft 143 kts 143°
2026-04-29 18:58 60.39964 -9.21735 14680 ft 143 kts 143°
2026-04-29 18:59 60.39344 -9.20147 14689 ft 143 kts 143°
2026-04-29 18:59 60.38726 -9.18564 14693 ft 144 kts 143°
2026-04-29 18:59 60.38107 -9.16978 14699 ft 144 kts 143°
2026-04-29 18:59 60.37489 -9.15395 14699 ft 143 kts 143°
2026-04-29 19:00 60.36870 -9.13811 14701 ft 143 kts 143°
2026-04-29 19:00 60.36251 -9.12230 14703 ft 143 kts 143°
2026-04-29 19:00 60.35633 -9.10651 14707 ft 143 kts 143°
2026-04-29 19:00 60.35014 -9.09073 14709 ft 143 kts 143°
2026-04-29 19:01 60.34397 -9.07498 14714 ft 143 kts 143°
2026-04-29 19:01 60.33777 -9.05918 14719 ft 143 kts 143°
2026-04-29 19:01 60.33160 -9.04346 14718 ft 143 kts 143°
2026-04-29 19:01 60.32542 -9.02773 14718 ft 143 kts 143°
2026-04-29 19:02 60.31924 -9.01199 14718 ft 143 kts 143°
2026-04-29 19:02 60.31515 -9.00159 14721 ft 143 kts 143°
2026-04-29 19:02 60.30695 -8.98075 14723 ft 143 kts 143°
2026-04-29 19:02 60.30077 -8.96506 14723 ft 143 kts 143°
2026-04-29 19:03 60.29457 -8.94935 14732 ft 143 kts 143°
2026-04-29 19:03 60.28838 -8.93366 14733 ft 143 kts 143°
2026-04-29 19:03 60.28219 -8.91800 14735 ft 143 kts 143°
2026-04-29 19:03 60.27598 -8.90229 14739 ft 143 kts 142°
2026-04-29 19:04 60.26979 -8.88664 14742 ft 143 kts 142°
2026-04-29 19:04 60.26361 -8.87100 14746 ft 142 kts 142°
2026-04-29 19:04 60.25750 -8.85558 14747 ft 142 kts 142°
2026-04-29 19:04 60.25133 -8.84000 14749 ft 142 kts 142°
2026-04-29 19:05 60.24514 -8.82441 14755 ft 142 kts 142°
2026-04-29 19:05 60.23895 -8.80889 14756 ft 142 kts 142°
2026-04-29 19:05 60.23274 -8.79337 14759 ft 142 kts 142°
2026-04-29 19:05 60.22653 -8.77779 14767 ft 142 kts 142°
2026-04-29 19:06 60.22040 -8.76227 14768 ft 141 kts 142°
2026-04-29 19:06 60.21429 -8.74680 14767 ft 141 kts 142°
2026-04-29 19:06 60.20210 -8.71590 14767 ft 141 kts 142°
2026-04-29 19:07 60.19599 -8.70054 14770 ft 141 kts 142°
2026-04-29 19:07 60.19193 -8.69038 14773 ft 141 kts 142°
2026-04-29 19:07 60.18380 -8.67012 14774 ft 140 kts 142°
2026-04-29 19:07 60.17766 -8.65478 14777 ft 140 kts 142°
2026-04-29 19:08 60.17154 -8.63949 14778 ft 140 kts 142°
2026-04-29 19:08 60.16543 -8.62424 14778 ft 140 kts 142°
2026-04-29 19:08 60.15932 -8.60900 14783 ft 140 kts 142°
2026-04-29 19:08 60.15319 -8.59367 14780 ft 140 kts 142°
2026-04-29 19:09 60.14716 -8.57861 14783 ft 140 kts 142°
2026-04-29 19:09 60.14106 -8.56338 14789 ft 140 kts 142°
2026-04-29 19:09 60.13496 -8.54811 14784 ft 140 kts 142°
2026-04-29 19:09 60.12885 -8.53282 14786 ft 140 kts 142°
2026-04-29 19:10 60.12275 -8.51758 14787 ft 140 kts 142°
2026-04-29 19:10 60.11665 -8.50233 14788 ft 140 kts 142°
2026-04-29 19:10 60.11054 -8.48712 14792 ft 140 kts 142°
2026-04-29 19:10 60.10441 -8.47192 14790 ft 140 kts 142°
2026-04-29 19:11 60.09837 -8.45700 14791 ft 140 kts 142°
2026-04-29 19:11 60.09223 -8.44184 14789 ft 140 kts 142°
2026-04-29 19:11 60.08611 -8.42669 14792 ft 140 kts 142°
2026-04-29 19:11 60.07998 -8.41159 14793 ft 139 kts 142°
2026-04-29 19:12 60.07388 -8.39649 14796 ft 139 kts 142°
2026-04-29 19:12 60.06775 -8.38133 14797 ft 139 kts 142°
2026-04-29 19:12 60.06163 -8.36622 14796 ft 139 kts 142°
2026-04-29 19:12 60.05757 -8.35617 14798 ft 139 kts 142°
2026-04-29 19:13 60.04952 -8.33613 14800 ft 140 kts 142°
2026-04-29 19:13 60.04344 -8.32099 14801 ft 140 kts 142°
2026-04-29 19:13 60.03733 -8.30581 14805 ft 139 kts 142°
2026-04-29 19:13 60.03122 -8.29074 14804 ft 139 kts 142°
2026-04-29 19:14 60.02509 -8.27571 14805 ft 139 kts 142°
2026-04-29 19:14 60.01904 -8.26093 14806 ft 139 kts 142°
2026-04-29 19:14 60.01293 -8.24596 14808 ft 139 kts 142°
2026-04-29 19:14 60.00680 -8.23093 14811 ft 139 kts 142°
2026-04-29 19:15 60.00069 -8.21592 14812 ft 139 kts 142°
2026-04-29 19:15 59.99457 -8.20090 14810 ft 139 kts 142°
2026-04-29 19:15 59.98845 -8.18587 14814 ft 139 kts 142°
2026-04-29 19:15 59.98232 -8.17085 14816 ft 139 kts 142°
2026-04-29 19:16 59.97621 -8.15589 14816 ft 139 kts 142°
2026-04-29 19:16 59.97008 -8.14093 14816 ft 139 kts 142°
2026-04-29 19:16 59.96398 -8.12595 14819 ft 139 kts 142°
2026-04-29 19:16 59.95788 -8.11095 14818 ft 139 kts 142°
2026-04-29 19:17 59.95178 -8.09594 14818 ft 139 kts 142°
2026-04-29 19:17 59.94568 -8.08097 14819 ft 139 kts 142°
2026-04-29 19:17 59.93964 -8.06622 14823 ft 139 kts 142°
2026-04-29 19:17 59.93350 -8.05133 14822 ft 139 kts 142°
2026-04-29 19:18 59.92737 -8.03648 14823 ft 139 kts 142°
2026-04-29 19:18 59.92324 -8.02646 14824 ft 139 kts 142°
2026-04-29 19:18 59.91514 -8.00674 14826 ft 139 kts 142°
2026-04-29 19:18 59.90902 -7.99188 14828 ft 139 kts 142°
2026-04-29 19:19 59.90290 -7.97702 14829 ft 139 kts 142°
2026-04-29 19:19 59.89679 -7.96217 14829 ft 138 kts 142°
2026-04-29 19:19 59.89066 -7.94726 14832 ft 139 kts 142°
2026-04-29 19:19 59.88455 -7.93233 14832 ft 139 kts 142°
2026-04-29 19:20 59.87850 -7.91759 14834 ft 139 kts 142°
2026-04-29 19:20 59.87239 -7.90274 14835 ft 139 kts 142°
2026-04-29 19:20 59.86626 -7.88794 14832 ft 138 kts 142°
2026-04-29 19:20 59.86011 -7.87314 14836 ft 139 kts 142°
2026-04-29 19:21 59.85397 -7.85832 14837 ft 138 kts 142°
2026-04-29 19:21 59.84786 -7.84352 14843 ft 139 kts 142°
2026-04-29 19:21 59.84171 -7.82868 14841 ft 139 kts 142°
2026-04-29 19:21 59.83558 -7.81384 14841 ft 139 kts 142°
2026-04-29 19:22 59.82955 -7.79923 14841 ft 138 kts 142°
2026-04-29 19:22 59.82335 -7.78424 14842 ft 138 kts 142°
2026-04-29 19:22 59.81724 -7.76947 14844 ft 138 kts 142°
2026-04-29 19:22 59.81117 -7.75482 14845 ft 138 kts 142°
2026-04-29 19:23 59.80504 -7.74006 14847 ft 138 kts 142°
2026-04-29 19:23 59.79889 -7.72532 14851 ft 138 kts 142°
2026-04-29 19:23 59.79276 -7.71065 14852 ft 138 kts 142°
2026-04-29 19:23 59.78661 -7.69597 14853 ft 138 kts 142°
2026-04-29 19:24 59.78046 -7.68124 14855 ft 138 kts 142°
2026-04-29 19:24 59.77433 -7.66656 14851 ft 138 kts 142°
2026-04-29 19:24 59.76829 -7.65208 14854 ft 138 kts 142°
2026-04-29 19:24 59.76215 -7.63734 14858 ft 138 kts 142°
2026-04-29 19:25 59.75603 -7.62255 14858 ft 138 kts 142°
2026-04-29 19:25 59.74992 -7.60784 14859 ft 138 kts 142°
2026-04-29 19:25 59.74378 -7.59308 14862 ft 138 kts 142°
2026-04-29 19:25 59.73763 -7.57844 14865 ft 138 kts 142°
2026-04-29 19:26 59.73148 -7.56381 14865 ft 138 kts 142°
2026-04-29 19:26 59.72539 -7.54934 14864 ft 138 kts 142°
2026-04-29 19:26 59.71924 -7.53473 14867 ft 138 kts 142°
2026-04-29 19:26 59.71311 -7.52011 14868 ft 138 kts 142°
2026-04-29 19:27 59.70699 -7.50545 14871 ft 138 kts 142°
2026-04-29 19:27 59.70085 -7.49076 14870 ft 138 kts 142°
2026-04-29 19:27 59.69470 -7.47609 14872 ft 138 kts 142°
2026-04-29 19:27 59.68856 -7.46145 14874 ft 138 kts 142°
2026-04-29 19:28 59.68239 -7.44678 14875 ft 138 kts 142°
2026-04-29 19:28 59.67623 -7.43216 14876 ft 138 kts 142°
2026-04-29 19:28 59.67008 -7.41758 14880 ft 138 kts 142°
2026-04-29 19:28 59.66399 -7.40321 14879 ft 138 kts 142°
2026-04-29 19:29 59.65784 -7.38871 14883 ft 138 kts 142°
2026-04-29 19:29 59.65169 -7.37417 14888 ft 138 kts 142°
2026-04-29 19:29 59.64553 -7.35959 14886 ft 138 kts 142°
2026-04-29 19:29 59.63937 -7.34499 14889 ft 138 kts 142°
2026-04-29 19:30 59.63321 -7.33037 14889 ft 138 kts 142°
2026-04-29 19:30 59.62715 -7.31600 14889 ft 138 kts 142°
2026-04-29 19:30 59.62100 -7.30145 14888 ft 138 kts 142°
2026-04-29 19:30 59.61485 -7.28689 14894 ft 138 kts 142°
2026-04-29 19:31 59.60870 -7.27231 14894 ft 138 kts 142°
2026-04-29 19:31 59.60253 -7.25773 14896 ft 138 kts 142°
2026-04-29 19:31 59.59638 -7.24322 14898 ft 138 kts 142°
2026-04-29 19:31 59.59020 -7.22875 14898 ft 138 kts 142°
2026-04-29 19:32 59.58403 -7.21431 14897 ft 137 kts 142°
2026-04-29 19:32 59.57786 -7.19990 14893 ft 138 kts 142°
2026-04-29 19:32 59.57377 -7.19034 14901 ft 138 kts 142°
2026-04-29 19:32 59.56560 -7.17114 14904 ft 137 kts 141°
2026-04-29 19:33 59.55945 -7.15665 14909 ft 138 kts 141°
2026-04-29 19:33 59.55538 -7.14706 14907 ft 138 kts 141°
2026-04-29 19:33 59.54921 -7.13260 14910 ft 138 kts 141°
2026-04-29 19:33 59.54098 -7.11327 14908 ft 138 kts 141°
2026-04-29 19:34 59.53692 -7.10370 14910 ft 138 kts 141°
2026-04-29 19:34 59.53075 -7.08927 14915 ft 137 kts 141°
2026-04-29 19:34 59.52459 -7.07489 14917 ft 137 kts 141°
2026-04-29 19:34 59.51843 -7.06049 14912 ft 137 kts 141°
2026-04-29 19:35 59.51226 -7.04610 14914 ft 137 kts 141°
2026-04-29 19:35 59.50410 -7.02711 14915 ft 137 kts 141°
2026-04-29 19:35 59.49994 -7.01743 14917 ft 137 kts 141°
2026-04-29 19:35 59.49379 -7.00311 14919 ft 137 kts 141°
2026-04-29 19:36 59.48763 -6.98875 14917 ft 137 kts 141°
2026-04-29 19:36 59.48146 -6.97438 14921 ft 137 kts 141°
2026-04-29 19:36 59.47532 -6.96001 14921 ft 137 kts 141°
2026-04-29 19:36 59.46917 -6.94567 14919 ft 137 kts 141°
2026-04-29 19:37 59.46310 -6.93155 14924 ft 137 kts 141°
2026-04-29 19:37 59.45892 -6.92186 14925 ft 137 kts 141°
2026-04-29 19:37 59.45078 -6.90290 14925 ft 137 kts 141°
2026-04-29 19:37 59.44463 -6.88864 14927 ft 137 kts 141°
2026-04-29 19:38 59.43847 -6.87435 14927 ft 137 kts 141°
2026-04-29 19:38 59.43231 -6.86008 14931 ft 137 kts 141°
2026-04-29 19:38 59.42624 -6.84604 14933 ft 137 kts 141°
2026-04-29 19:38 59.42010 -6.83181 14933 ft 136 kts 141°
2026-04-29 19:39 59.41397 -6.81752 14932 ft 137 kts 141°
2026-04-29 19:39 59.40781 -6.80328 14933 ft 136 kts 141°
2026-04-29 19:39 59.40166 -6.78914 14934 ft 136 kts 141°
2026-04-29 19:39 59.39550 -6.77501 14936 ft 136 kts 141°
2026-04-29 19:40 59.38935 -6.76089 14942 ft 136 kts 141°
2026-04-29 19:40 59.38321 -6.74678 14940 ft 136 kts 141°
2026-04-29 19:40 59.37707 -6.73265 14941 ft 136 kts 141°
2026-04-29 19:40 59.37094 -6.71849 14942 ft 136 kts 141°
2026-04-29 19:41 59.36481 -6.70439 14946 ft 136 kts 141°
2026-04-29 19:41 59.35875 -6.69041 14946 ft 136 kts 141°
2026-04-29 19:41 59.35263 -6.67627 14952 ft 136 kts 141°
2026-04-29 19:41 59.34650 -6.66213 14947 ft 136 kts 141°
2026-04-29 19:42 59.34036 -6.64800 14951 ft 136 kts 141°
2026-04-29 19:42 59.33630 -6.63866 14953 ft 136 kts 141°
2026-04-29 19:42 59.32811 -6.61985 14955 ft 136 kts 141°
2026-04-29 19:42 59.32198 -6.60579 14957 ft 136 kts 141°
2026-04-29 19:43 59.31584 -6.59173 14958 ft 135 kts 141°
2026-04-29 19:43 59.30980 -6.57789 14960 ft 135 kts 141°
2026-04-29 19:43 59.30366 -6.56387 14960 ft 135 kts 141°
2026-04-29 19:43 59.29751 -6.54987 14961 ft 135 kts 141°
2026-04-29 19:44 59.29137 -6.53589 14963 ft 135 kts 141°
2026-04-29 19:44 59.28523 -6.52190 14963 ft 135 kts 141°
2026-04-29 19:44 59.27910 -6.50791 14961 ft 135 kts 141°
2026-04-29 19:44 59.27306 -6.49409 14969 ft 135 kts 141°
2026-04-29 19:45 59.26694 -6.48004 14970 ft 135 kts 141°
2026-04-29 19:45 59.26082 -6.46605 14969 ft 135 kts 141°
2026-04-29 19:45 59.25469 -6.45209 14973 ft 135 kts 141°
2026-04-29 19:45 59.24856 -6.43814 14970 ft 135 kts 141°
2026-04-29 19:46 59.24244 -6.42424 14976 ft 135 kts 141°
2026-04-29 19:46 59.23640 -6.41051 14976 ft 135 kts 141°
2026-04-29 19:46 59.23027 -6.39664 14976 ft 135 kts 141°
2026-04-29 19:46 59.22412 -6.38278 14982 ft 135 kts 141°
2026-04-29 19:47 59.21800 -6.36894 14976 ft 135 kts 141°
2026-04-29 19:47 59.21188 -6.35508 14976 ft 135 kts 141°
2026-04-29 19:47 59.20578 -6.34118 14979 ft 135 kts 140°
2026-04-29 19:47 59.19968 -6.32729 14986 ft 135 kts 140°
2026-04-29 19:48 59.19358 -6.31340 14976 ft 135 kts 140°
2026-04-29 19:48 59.18953 -6.30421 14988 ft 135 kts 141°
2026-04-29 19:48 59.18135 -6.28571 14981 ft 134 kts 141°
2026-04-29 19:48 59.17530 -6.27213 14994 ft 134 kts 141°
2026-04-29 19:49 59.16916 -6.25834 14993 ft 134 kts 141°
2026-04-29 19:49 59.16303 -6.24459 14996 ft 134 kts 140°
2026-04-29 19:49 59.15691 -6.23084 14996 ft 134 kts 140°
2026-04-29 19:49 59.15078 -6.21709 15002 ft 134 kts 140°
2026-04-29 19:50 59.14467 -6.20334 15002 ft 134 kts 140°
2026-04-29 19:50 59.13857 -6.18959 15002 ft 134 kts 140°
2026-04-29 19:50 59.13248 -6.17585 15005 ft 134 kts 140°
2026-04-29 19:50 59.12641 -6.16210 15008 ft 134 kts 140°
2026-04-29 19:51 59.12033 -6.14836 15008 ft 134 kts 140°
2026-04-29 19:51 59.11424 -6.13464 15008 ft 134 kts 140°
2026-04-29 19:51 59.10815 -6.12094 15012 ft 133 kts 140°
2026-04-29 19:51 59.10216 -6.10746 15013 ft 133 kts 140°
2026-04-29 19:52 59.09601 -6.09365 15015 ft 133 kts 140°
2026-04-29 19:52 59.09000 -6.08022 15017 ft 133 kts 140°
2026-04-29 19:52 59.08389 -6.06661 15018 ft 133 kts 140°
2026-04-29 19:52 59.07783 -6.05310 15017 ft 127 kts 140°
2026-04-29 19:53 59.07284 -6.04136 14903 ft 102 kts 141°
2026-04-29 19:53 59.06883 -6.03157 14772 ft 84 kts 142°
2026-04-29 19:53 59.06507 -6.02260 14469 ft 89 kts 143°
2026-04-29 19:53 59.06118 -6.01377 14261 ft 83 kts 144°
2026-04-29 19:54 59.05333 -5.99680 13677 ft 84 kts 146°
2026-04-29 19:54 59.04928 -5.98840 13399 ft 84 kts 146°
2026-04-29 19:54 59.04531 -5.98013 13114 ft 85 kts 146°
2026-04-29 19:55 59.04130 -5.97184 12852 ft 83 kts 145°
2026-04-29 19:55 59.03734 -5.96353 12567 ft 85 kts 145°
2026-04-29 19:55 59.03341 -5.95514 12309 ft 84 kts 144°
2026-04-29 19:55 59.02950 -5.94663 12040 ft 84 kts 144°
2026-04-29 19:56 59.02567 -5.93809 11771 ft 84 kts 143°
2026-04-29 19:56 59.02185 -5.92945 11516 ft 84 kts 143°
2026-04-29 19:56 59.01802 -5.92071 11305 ft 88 kts 141°
2026-04-29 19:56 59.01388 -5.91082 11397 ft 99 kts 139°
2026-04-29 19:57 59.00935 -5.89998 11497 ft 107 kts 139°
2026-04-29 19:57 59.00609 -5.89249 11547 ft 112 kts 140°
2026-04-29 19:57 58.99892 -5.87674 11655 ft 120 kts 141°
2026-04-29 19:57 58.99326 -5.86465 11742 ft 122 kts 141°
2026-04-29 19:58 58.98757 -5.85256 11839 ft 124 kts 141°
2026-04-29 19:58 58.98178 -5.84016 11932 ft 124 kts 140°
2026-04-29 19:58 58.97601 -5.82760 12031 ft 125 kts 140°
2026-04-29 19:58 58.97029 -5.81492 12124 ft 125 kts 139°
2026-04-29 19:59 58.96460 -5.80213 12223 ft 125 kts 139°
2026-04-29 19:59 58.95894 -5.78934 12320 ft 125 kts 139°
2026-04-29 19:59 58.95329 -5.77655 12418 ft 125 kts 139°
2026-04-29 19:59 58.94763 -5.76384 12513 ft 125 kts 139°
2026-04-29 20:00 58.94194 -5.75116 12612 ft 124 kts 140°
2026-04-29 20:00 58.93626 -5.73857 12705 ft 124 kts 140°
2026-04-29 20:00 58.93058 -5.72604 12798 ft 124 kts 140°
2026-04-29 20:00 58.92491 -5.71352 12887 ft 124 kts 140°
2026-04-29 20:01 58.91909 -5.70076 12916 ft 128 kts 140°
2026-04-29 20:01 58.91306 -5.68766 12924 ft 132 kts 140°
2026-04-29 20:01 58.90688 -5.67424 12937 ft 134 kts 139°
2026-04-29 20:01 58.90072 -5.66082 12948 ft 136 kts 139°
2026-04-29 20:02 58.89443 -5.64708 12966 ft 136 kts 139°
2026-04-29 20:02 58.88816 -5.63327 12985 ft 137 kts 139°
2026-04-29 20:02 58.88191 -5.61939 13001 ft 137 kts 139°
2026-04-29 20:02 58.87774 -5.61013 13016 ft 137 kts 139°
2026-04-29 20:03 58.86934 -5.59147 13044 ft 137 kts 139°
2026-04-29 20:03 58.86305 -5.57755 13060 ft 137 kts 139°
2026-04-29 20:03 58.85684 -5.56386 13078 ft 137 kts 139°
2026-04-29 20:03 58.85054 -5.55003 13095 ft 137 kts 139°
2026-04-29 20:04 58.84422 -5.53624 13115 ft 137 kts 139°
2026-04-29 20:04 58.83790 -5.52245 13133 ft 137 kts 139°
2026-04-29 20:04 58.83157 -5.50867 13152 ft 137 kts 139°
2026-04-29 20:04 58.82523 -5.49490 13170 ft 137 kts 139°
2026-04-29 20:05 58.81891 -5.48117 13191 ft 137 kts 139°
2026-04-29 20:05 58.81259 -5.46744 13209 ft 137 kts 139°
2026-04-29 20:05 58.80636 -5.45385 13222 ft 137 kts 139°
2026-04-29 20:05 58.80005 -5.44011 13243 ft 137 kts 139°
2026-04-29 20:06 58.79376 -5.42638 13261 ft 136 kts 139°
2026-04-29 20:06 58.78748 -5.41266 13277 ft 136 kts 139°
2026-04-29 20:06 58.78122 -5.39896 13296 ft 136 kts 139°
2026-04-29 20:06 58.77493 -5.38526 13313 ft 136 kts 139°
2026-04-29 20:07 58.76866 -5.37159 13326 ft 136 kts 139°
2026-04-29 20:07 58.76238 -5.35792 13346 ft 136 kts 139°
2026-04-29 20:07 58.75610 -5.34426 13363 ft 136 kts 139°
2026-04-29 20:07 58.74979 -5.33064 13383 ft 136 kts 139°
2026-04-29 20:08 58.74349 -5.31704 13403 ft 136 kts 139°
2026-04-29 20:08 58.73932 -5.30805 13410 ft 136 kts 139°
2026-04-29 20:08 58.73097 -5.29005 13435 ft 136 kts 139°
2026-04-29 20:08 58.72470 -5.27649 13450 ft 136 kts 138°
2026-04-29 20:09 58.71844 -5.26295 13466 ft 135 kts 138°
2026-04-29 20:09 58.71216 -5.24938 13486 ft 135 kts 138°
2026-04-29 20:09 58.70590 -5.23582 13502 ft 135 kts 138°
2026-04-29 20:09 58.69964 -5.22227 13516 ft 135 kts 138°
2026-04-29 20:10 58.69345 -5.20892 13533 ft 135 kts 138°
2026-04-29 20:10 58.68720 -5.19537 13543 ft 135 kts 138°
2026-04-29 20:10 58.68094 -5.18187 13562 ft 135 kts 138°
2026-04-29 20:10 58.67471 -5.16840 13582 ft 135 kts 138°
2026-04-29 20:11 58.66846 -5.15491 13599 ft 135 kts 138°
2026-04-29 20:11 58.66222 -5.14148 13616 ft 135 kts 138°
2026-04-29 20:11 58.65595 -5.12803 13633 ft 135 kts 138°
2026-04-29 20:11 58.64978 -5.11483 13647 ft 135 kts 138°
2026-04-29 20:12 58.64351 -5.10143 13666 ft 134 kts 138°
2026-04-29 20:12 58.63728 -5.08806 13682 ft 134 kts 138°
2026-04-29 20:12 58.63106 -5.07469 13698 ft 134 kts 138°
2026-04-29 20:12 58.62484 -5.06131 13712 ft 134 kts 138°
2026-04-29 20:13 58.61861 -5.04793 13727 ft 134 kts 138°
2026-04-29 20:13 58.61448 -5.03908 13736 ft 135 kts 138°
2026-04-29 20:13 58.60613 -5.02121 13757 ft 134 kts 138°
2026-04-29 20:13 58.59989 -5.00784 13775 ft 134 kts 138°
2026-04-29 20:14 58.59364 -4.99448 13790 ft 134 kts 138°
2026-04-29 20:14 58.58741 -4.98115 13803 ft 134 kts 138°
2026-04-29 20:14 58.58121 -4.96791 13820 ft 133 kts 138°
2026-04-29 20:14 58.57507 -4.95483 13833 ft 134 kts 138°
2026-04-29 20:15 58.56885 -4.94157 13848 ft 134 kts 138°
2026-04-29 20:15 58.56261 -4.92827 13859 ft 134 kts 138°
2026-04-29 20:15 58.55639 -4.91503 13876 ft 134 kts 138°
2026-04-29 20:15 58.55017 -4.90178 13892 ft 134 kts 138°
2026-04-29 20:16 58.54394 -4.88853 13903 ft 134 kts 138°
2026-04-29 20:16 58.53770 -4.87528 13922 ft 134 kts 138°
2026-04-29 20:16 58.53148 -4.86207 13938 ft 133 kts 138°
2026-04-29 20:16 58.52535 -4.84905 13949 ft 134 kts 137°
2026-04-29 20:17 58.51908 -4.83576 13970 ft 134 kts 137°
2026-04-29 20:17 58.51283 -4.82250 13981 ft 134 kts 137°
2026-04-29 20:17 58.50659 -4.80925 13996 ft 134 kts 137°
2026-04-29 20:17 58.50032 -4.79596 14011 ft 134 kts 137°
2026-04-29 20:18 58.49408 -4.78272 14028 ft 134 kts 137°
2026-04-29 20:18 58.48787 -4.76957 14040 ft 133 kts 137°
2026-04-29 20:18 58.48165 -4.75640 14054 ft 133 kts 137°
2026-04-29 20:18 58.47548 -4.74337 14067 ft 134 kts 137°
2026-04-29 20:19 58.46921 -4.73011 14085 ft 134 kts 137°
2026-04-29 20:19 58.46294 -4.71688 14105 ft 134 kts 137°
2026-04-29 20:19 58.45670 -4.70368 14116 ft 134 kts 137°
2026-04-29 20:19 58.45045 -4.69049 14127 ft 133 kts 137°
2026-04-29 20:20 58.44422 -4.67739 14140 ft 133 kts 137°
2026-04-29 20:20 58.43803 -4.66418 14153 ft 134 kts 136°
2026-04-29 20:20 58.43191 -4.65073 14167 ft 134 kts 136°
2026-04-29 20:20 58.42591 -4.63719 14183 ft 134 kts 135°
2026-04-29 20:21 58.41993 -4.62352 14193 ft 134 kts 135°
2026-04-29 20:21 58.41397 -4.60987 14208 ft 133 kts 135°
2026-04-29 20:21 58.40810 -4.59646 14219 ft 133 kts 135°
2026-04-29 20:21 58.40209 -4.58292 14230 ft 134 kts 136°
2026-04-29 20:22 58.39603 -4.56947 14243 ft 133 kts 136°
2026-04-29 20:22 58.38997 -4.55606 14258 ft 134 kts 136°
2026-04-29 20:22 58.38590 -4.54715 14264 ft 134 kts 136°
2026-04-29 20:22 58.37980 -4.53372 14280 ft 134 kts 136°
2026-04-29 20:23 58.37170 -4.51576 14296 ft 134 kts 136°
2026-04-29 20:23 58.36573 -4.50245 14309 ft 133 kts 135°
2026-04-29 20:23 58.35968 -4.48898 14321 ft 134 kts 135°
2026-04-29 20:23 58.35365 -4.47552 14329 ft 134 kts 135°
2026-04-29 20:24 58.34955 -4.46638 14338 ft 134 kts 135°
2026-04-29 20:24 58.34357 -4.45310 14349 ft 134 kts 135°
2026-04-29 20:24 58.33754 -4.43972 14361 ft 133 kts 135°
2026-04-29 20:24 58.33149 -4.42629 14376 ft 134 kts 135°
2026-04-29 20:25 58.32539 -4.41278 14393 ft 134 kts 135°
2026-04-29 20:25 58.31932 -4.39936 14399 ft 134 kts 135°
2026-04-29 20:25 58.31326 -4.38596 14415 ft 133 kts 135°
2026-04-29 20:25 58.30727 -4.37273 14426 ft 134 kts 135°
2026-04-29 20:26 58.30118 -4.35934 14439 ft 134 kts 135°
2026-04-29 20:26 58.29502 -4.34575 14447 ft 134 kts 135°
2026-04-29 20:26 58.28905 -4.33254 14462 ft 134 kts 135°
2026-04-29 20:26 58.28298 -4.31914 14468 ft 134 kts 135°
2026-04-29 20:27 58.27689 -4.30573 14479 ft 134 kts 135°
2026-04-29 20:27 58.27279 -4.29667 14488 ft 134 kts 135°
2026-04-29 20:27 58.26476 -4.27896 14505 ft 134 kts 135°
2026-04-29 20:27 58.25866 -4.26554 14519 ft 134 kts 135°
2026-04-29 20:28 58.25257 -4.25217 14530 ft 134 kts 135°
2026-04-29 20:28 58.24649 -4.23881 14543 ft 133 kts 135°
2026-04-29 20:28 58.24044 -4.22551 14554 ft 133 kts 135°
2026-04-29 20:28 58.23439 -4.21223 14565 ft 133 kts 135°
2026-04-29 20:29 58.22833 -4.19895 14577 ft 133 kts 135°
2026-04-29 20:29 58.22225 -4.18561 14586 ft 134 kts 135°
2026-04-29 20:29 58.21615 -4.17224 14599 ft 134 kts 135°
2026-04-29 20:29 58.21006 -4.15887 14609 ft 134 kts 135°
2026-04-29 20:30 58.20406 -4.14569 14621 ft 134 kts 135°
2026-04-29 20:30 58.19798 -4.13236 14633 ft 133 kts 135°
2026-04-29 20:30 58.19189 -4.11907 14644 ft 134 kts 135°
2026-04-29 20:30 58.18578 -4.10578 14654 ft 133 kts 135°
2026-04-29 20:31 58.17968 -4.09246 14668 ft 134 kts 134°
2026-04-29 20:31 58.17358 -4.07913 14677 ft 134 kts 134°
2026-04-29 20:31 58.16749 -4.06582 14691 ft 133 kts 134°
2026-04-29 20:31 58.16140 -4.05253 14704 ft 133 kts 134°
2026-04-29 20:32 58.15532 -4.03928 14712 ft 133 kts 134°
2026-04-29 20:32 58.14930 -4.02619 14724 ft 133 kts 134°
2026-04-29 20:32 58.14323 -4.01297 14735 ft 133 kts 134°
2026-04-29 20:32 58.13715 -3.99972 14749 ft 133 kts 134°
2026-04-29 20:33 58.13106 -3.98647 14762 ft 133 kts 134°
2026-04-29 20:33 58.12495 -3.97322 14772 ft 133 kts 134°
2026-04-29 20:33 58.11885 -3.95999 14784 ft 133 kts 134°
2026-04-29 20:33 58.11276 -3.94675 14793 ft 133 kts 134°
2026-04-29 20:34 58.10668 -3.93357 14804 ft 133 kts 134°
2026-04-29 20:34 58.10061 -3.92039 14815 ft 133 kts 134°
2026-04-29 20:34 58.09453 -3.90717 14829 ft 133 kts 134°
2026-04-29 20:34 58.08846 -3.89398 14837 ft 133 kts 134°
2026-04-29 20:35 58.08237 -3.88084 14849 ft 133 kts 134°
2026-04-29 20:35 58.07627 -3.86765 14861 ft 133 kts 134°
2026-04-29 20:35 58.07017 -3.85447 14872 ft 134 kts 134°
2026-04-29 20:35 58.06405 -3.84123 14880 ft 133 kts 134°
2026-04-29 20:36 58.05794 -3.82805 14893 ft 133 kts 134°
2026-04-29 20:36 58.05191 -3.81506 14905 ft 133 kts 134°
2026-04-29 20:36 58.04583 -3.80190 14907 ft 133 kts 134°
2026-04-29 20:36 58.03974 -3.78872 14925 ft 133 kts 134°
2026-04-29 20:37 58.03367 -3.77562 14940 ft 132 kts 134°
2026-04-29 20:37 58.02760 -3.76255 14950 ft 132 kts 134°
2026-04-29 20:37 58.02151 -3.74949 14963 ft 132 kts 134°
2026-04-29 20:37 58.01545 -3.73646 14972 ft 132 kts 134°
2026-04-29 20:38 58.00939 -3.72345 14984 ft 132 kts 134°
2026-04-29 20:38 58.00342 -3.71060 14991 ft 132 kts 134°
2026-04-29 20:38 57.99735 -3.69761 15004 ft 132 kts 133°
2026-04-29 20:38 57.99130 -3.68459 15009 ft 132 kts 133°
2026-04-29 20:39 57.98526 -3.67159 15018 ft 132 kts 133°
2026-04-29 20:39 57.97921 -3.65862 15029 ft 132 kts 133°
2026-04-29 20:39 57.97314 -3.64562 15039 ft 132 kts 133°
2026-04-29 20:39 57.96709 -3.63267 15046 ft 132 kts 133°
2026-04-29 20:40 57.96110 -3.61985 15057 ft 131 kts 133°
2026-04-29 20:40 57.95507 -3.60692 15068 ft 131 kts 133°
2026-04-29 20:40 57.94903 -3.59402 15076 ft 131 kts 133°
2026-04-29 20:40 57.94300 -3.58113 15084 ft 131 kts 133°
2026-04-29 20:41 57.93696 -3.56821 15094 ft 131 kts 133°
2026-04-29 20:41 57.93094 -3.55533 15104 ft 131 kts 133°
2026-04-29 20:41 57.92498 -3.54263 15112 ft 131 kts 133°
2026-04-29 20:41 57.91894 -3.52976 15122 ft 131 kts 133°
2026-04-29 20:42 57.91291 -3.51691 15133 ft 131 kts 133°
2026-04-29 20:42 57.90687 -3.50405 15142 ft 131 kts 133°
2026-04-29 20:42 57.90084 -3.49125 15150 ft 131 kts 133°
2026-04-29 20:42 57.89480 -3.47842 15156 ft 131 kts 133°
2026-04-29 20:43 57.88880 -3.46564 15172 ft 131 kts 133°
2026-04-29 20:43 57.88278 -3.45281 15181 ft 130 kts 133°
2026-04-29 20:43 57.87683 -3.44015 15191 ft 131 kts 133°
2026-04-29 20:43 57.87082 -3.42739 15202 ft 130 kts 133°
2026-04-29 20:44 57.86480 -3.41464 15209 ft 130 kts 133°
2026-04-29 20:44 57.85879 -3.40190 15212 ft 130 kts 133°
2026-04-29 20:44 57.85277 -3.38913 15227 ft 130 kts 133°
2026-04-29 20:44 57.84676 -3.37640 15234 ft 130 kts 133°
2026-04-29 20:45 57.84076 -3.36371 15246 ft 130 kts 133°
2026-04-29 20:45 57.83477 -3.35102 15253 ft 130 kts 133°
2026-04-29 20:45 57.82877 -3.33831 15261 ft 130 kts 133°
2026-04-29 20:45 57.82277 -3.32562 15270 ft 130 kts 133°
2026-04-29 20:46 57.81677 -3.31294 15280 ft 130 kts 133°
2026-04-29 20:46 57.81077 -3.30024 15287 ft 130 kts 133°
2026-04-29 20:46 57.80475 -3.28755 15295 ft 130 kts 133°
2026-04-29 20:46 57.79881 -3.27508 15306 ft 130 kts 133°
2026-04-29 20:47 57.79281 -3.26245 15317 ft 130 kts 133°
2026-04-29 20:47 57.78681 -3.24977 15326 ft 130 kts 133°
2026-04-29 20:47 57.78080 -3.23711 15333 ft 130 kts 133°
2026-04-29 20:47 57.77480 -3.22446 15343 ft 130 kts 133°
2026-04-29 20:48 57.76881 -3.21185 15351 ft 129 kts 133°
2026-04-29 20:48 57.76282 -3.19925 15359 ft 129 kts 133°
2026-04-29 20:48 57.75680 -3.18662 15369 ft 130 kts 133°
2026-04-29 20:48 57.75078 -3.17399 15362 ft 131 kts 133°
2026-04-29 20:49 57.74481 -3.16146 15323 ft 131 kts 133°
2026-04-29 20:49 57.73874 -3.14869 15283 ft 130 kts 133°
2026-04-29 20:49 57.73266 -3.13592 15220 ft 131 kts 133°
2026-04-29 20:49 57.72663 -3.12326 15123 ft 130 kts 133°
2026-04-29 20:50 57.72055 -3.11053 14980 ft 132 kts 133°
2026-04-29 20:50 57.71450 -3.09785 14881 ft 129 kts 133°
2026-04-29 20:50 57.70855 -3.08540 14738 ft 131 kts 133°
2026-04-29 20:50 57.70251 -3.07278 14622 ft 129 kts 133°
2026-04-29 20:51 57.69650 -3.06025 14505 ft 129 kts 133°
2026-04-29 20:51 57.69049 -3.04772 14380 ft 129 kts 133°
2026-04-29 20:51 57.68452 -3.03526 14274 ft 128 kts 133°
2026-04-29 20:51 57.67855 -3.02279 14156 ft 129 kts 133°
2026-04-29 20:52 57.67260 -3.01033 14035 ft 128 kts 133°
2026-04-29 20:52 57.66666 -2.99791 13911 ft 128 kts 133°
2026-04-29 20:52 57.66069 -2.98551 13797 ft 128 kts 133°
2026-04-29 20:52 57.65474 -2.97314 13676 ft 128 kts 133°
2026-04-29 20:53 57.64880 -2.96077 13563 ft 128 kts 133°
2026-04-29 20:53 57.64286 -2.94840 13459 ft 128 kts 133°
2026-04-29 20:53 57.63690 -2.93604 13348 ft 128 kts 133°
2026-04-29 20:53 57.63103 -2.92390 13247 ft 128 kts 133°
2026-04-29 20:54 57.61917 -2.89927 13055 ft 127 kts 133°
2026-04-29 20:54 57.61327 -2.88692 12937 ft 128 kts 133°
2026-04-29 20:54 57.60731 -2.87454 12808 ft 128 kts 133°
2026-04-29 20:55 57.60137 -2.86227 12706 ft 127 kts 133°
2026-04-29 20:55 57.59542 -2.84998 12585 ft 128 kts 133°
2026-04-29 20:55 57.58948 -2.83771 12482 ft 127 kts 133°
2026-04-29 20:55 57.58356 -2.82545 12374 ft 127 kts 133°
2026-04-29 20:56 57.57769 -2.81329 12268 ft 127 kts 133°
2026-04-29 20:56 57.57177 -2.80109 12166 ft 127 kts 133°
2026-04-29 20:56 57.56585 -2.78881 12069 ft 127 kts 133°
2026-04-29 20:56 57.55994 -2.77657 11971 ft 127 kts 133°
2026-04-29 20:57 57.55402 -2.76434 11875 ft 127 kts 133°
2026-04-29 20:57 57.54810 -2.75214 11769 ft 127 kts 133°
2026-04-29 20:57 57.54218 -2.73995 11694 ft 127 kts 133°
2026-04-29 20:57 57.53627 -2.72780 11600 ft 126 kts 133°
2026-04-29 20:58 57.53044 -2.71579 11519 ft 127 kts 133°
2026-04-29 20:58 57.52456 -2.70366 11417 ft 126 kts 133°
2026-04-29 20:58 57.51864 -2.69148 11232 ft 128 kts 133°
2026-04-29 20:58 57.51267 -2.67923 11101 ft 126 kts 134°
2026-04-29 20:59 57.50677 -2.66711 10949 ft 127 kts 133°
2026-04-29 20:59 57.50095 -2.65512 10806 ft 127 kts 134°
2026-04-29 20:59 57.49505 -2.64298 10671 ft 126 kts 134°
2026-04-29 20:59 57.48921 -2.63098 10520 ft 126 kts 134°
2026-04-29 21:00 57.48330 -2.61885 10321 ft 127 kts 134°
2026-04-29 21:00 57.47733 -2.60662 10117 ft 127 kts 134°
2026-04-29 21:00 57.47143 -2.59458 9922 ft 126 kts 134°
2026-04-29 21:00 57.46554 -2.58262 9663 ft 122 kts 134°
2026-04-29 21:01 57.45947 -2.57023 9339 ft 127 kts 134°
2026-04-29 21:01 57.45363 -2.55828 8977 ft 131 kts 134°
2026-04-29 21:01 57.44753 -2.54593 8805 ft 126 kts 133°
2026-04-29 21:01 57.44174 -2.53405 8579 ft 127 kts 133°
2026-04-29 21:02 57.43571 -2.52170 8334 ft 127 kts 133°
2026-04-29 21:02 57.42985 -2.50976 8154 ft 125 kts 134°
2026-04-29 21:02 57.42391 -2.49762 7909 ft 127 kts 134°
2026-04-29 21:02 57.41809 -2.48564 7741 ft 124 kts 131°
2026-04-29 21:03 57.41239 -2.47332 7515 ft 126 kts 132°
2026-04-29 21:03 57.40653 -2.46128 7345 ft 125 kts 133°
2026-04-29 21:03 57.40052 -2.44954 7134 ft 126 kts 134°
2026-04-29 21:03 57.39451 -2.43782 6953 ft 125 kts 136°
2026-04-29 21:04 57.38862 -2.42626 6758 ft 125 kts 133°
2026-04-29 21:04 57.38299 -2.41395 6572 ft 125 kts 131°
2026-04-29 21:04 57.37727 -2.40190 6366 ft 125 kts 128°
2026-04-29 21:04 57.37328 -2.38751 6160 ft 127 kts 109°
2026-04-29 21:05 57.37211 -2.37122 5988 ft 127 kts 96°
2026-04-29 21:05 57.37352 -2.35485 5764 ft 133 kts 77°
2026-04-29 21:05 57.37699 -2.33899 5611 ft 131 kts 69°
2026-04-29 21:05 57.37954 -2.32268 5408 ft 133 kts 88°
2026-04-29 21:06 57.37923 -2.30580 5270 ft 128 kts 105°
2026-04-29 21:06 57.37660 -2.29033 5116 ft 126 kts 122°
2026-04-29 21:06 57.37179 -2.27699 4956 ft 123 kts 136°
2026-04-29 21:06 57.36521 -2.26757 4799 ft 122 kts 156°
2026-04-29 21:07 57.35730 -2.26262 4661 ft 118 kts 166°
2026-04-29 21:07 57.34914 -2.26212 4455 ft 117 kts 187°
2026-04-29 21:07 57.34415 -2.26424 4413 ft 104 kts 193°
2026-04-29 21:07 57.33606 -2.26972 4108 ft 88 kts 199°
2026-04-29 21:08 57.33030 -2.27342 3861 ft 84 kts 197°
2026-04-29 21:08 57.32470 -2.27541 3712 ft 82 kts 183°
2026-04-29 21:08 57.31913 -2.27596 3608 ft 79 kts 180°
2026-04-29 21:08 57.31358 -2.27515 3484 ft 80 kts 169°
2026-04-29 21:09 57.30823 -2.27222 3367 ft 80 kts 165°
2026-04-29 21:09 57.30296 -2.26942 3205 ft 81 kts 167°
2026-04-29 21:09 57.29757 -2.26671 2989 ft 81 kts 166°
2026-04-29 21:09 57.29220 -2.26355 2743 ft 80 kts 161°
2026-04-29 21:10 57.28706 -2.25972 2515 ft 79 kts 161°
2026-04-29 21:10 57.28205 -2.25575 2350 ft 77 kts 161°
2026-04-29 21:10 57.27710 -2.25201 2158 ft 77 kts 163°
2026-04-29 21:10 57.27379 -2.24977 2042 ft 76 kts 164°
2026-04-29 21:11 57.26880 -2.24639 1872 ft 76 kts 163°
2026-04-29 21:11 57.26234 -2.24187 1673 ft 74 kts 162°
2026-04-29 21:11 57.25759 -2.23818 1517 ft 76 kts 160°
2026-04-29 21:11 57.25441 -2.23568 1444 ft 74 kts 161°
2026-04-29 21:12 57.24954 -2.23208 1286 ft 76 kts 162°
2026-04-29 21:12 57.24466 -2.22864 1175 ft 75 kts 162°
2026-04-29 21:12 57.23970 -2.22512 1049 ft 76 kts 161°
2026-04-29 21:12 57.23479 -2.22148 904 ft 76 kts 161°
2026-04-29 21:13 57.22983 -2.21802 794 ft 76 kts 160°
2026-04-29 21:13 57.22476 -2.21427 621 ft 79 kts 160°
2026-04-29 21:13 57.21956 -2.21070 488 ft 81 kts 161°
2026-04-29 21:13 57.21444 -2.20701 379 ft 76 kts 158°
2026-04-29 21:14 57.20978 -2.20355 277 ft 71 kts 159°
2026-04-29 21:14 57.20580 -2.20061 250 ft 47 kts 159°
2026-04-29 21:14 57.20373 -2.19909 243 ft 23 kts 156°
2026-04-29 21:14 57.20346 -2.19823 242 ft 8 kts 66°
2026-04-29 21:15 57.20357 -2.19746 242 ft 8 kts 86°
2026-04-29 21:15 57.20351 -2.19649 242 ft 9 kts 96°
2026-04-29 21:15 57.20336 -2.19565 242 ft 6 kts 141°
2026-04-29 21:15 57.20306 -2.19538 242 ft 4 kts 134°
2026-04-29 21:16 57.20295 -2.19487 241 ft 5 kts 120°
2026-04-29 21:16 57.20276 -2.19460 242 ft 0 kts 159°